Time,TemperatureF,DewpointF,PressureIn,WindDirection,WindDirectionDegrees,WindSpeedMPH,WindSpeedGustMPH,Humidity,HourlyPrecipIn,Conditions,Clouds,dailyrainin,SoftwareType,DateUTC
2013-07-18 00:00:00,75.9,75.9,30.16,South,180,0.0,14.7,100,0.01,,SKC,0.01,VWS V14.01,2013-07-18 04:00:00,
2013-07-18 00:04:00,75.9,75.9,30.16,South,180,0.0,14.7,100,0.01,,SKC,0.01,VWS V14.01,2013-07-18 04:04:00,
2013-07-18 00:05:00,75.9,75.9,30.16,South,180,0.0,14.7,100,0.01,,SKC,0.01,VWS V14.01,2013-07-18 04:05:00,
2013-07-18 00:09:00,75.9,75.9,30.16,South,180,0.0,14.7,100,0.01,,SKC,0.01,VWS V14.01,2013-07-18 04:09:00,
2013-07-18 00:10:00,75.8,75.8,30.16,South,180,0.0,14.7,100,0.01,,SKC,0.01,VWS V14.01,2013-07-18 04:10:00,
2013-07-18 00:11:00,75.8,75.8,30.16,South,180,0.0,14.7,100,0.01,,SKC,0.01,VWS V14.01,2013-07-18 04:11:00,
2013-07-18 00:14:00,75.8,75.8,30.16,South,180,0.0,14.7,100,0.01,,SKC,0.01,VWS V14.01,2013-07-18 04:14:00,
2013-07-18 00:15:00,75.8,75.8,30.16,South,180,0.0,14.7,100,0.01,,SKC,0.01,VWS V14.01,2013-07-18 04:15:00,
2013-07-18 00:16:00,75.7,75.7,30.16,South,180,0.0,14.7,100,0.01,,SKC,0.01,VWS V14.01,2013-07-18 04:16:00,
2013-07-18 00:19:00,75.5,75.5,30.16,South,180,0.0,14.7,100,0.01,,SKC,0.01,VWS V14.01,2013-07-18 04:19:00,
2013-07-18 00:20:00,75.5,75.5,30.15,South,180,0.0,14.7,100,0.01,,SKC,0.01,VWS V14.01,2013-07-18 04:20:00,
2013-07-18 00:21:00,75.4,75.4,30.15,South,180,0.0,14.7,100,0.01,,SKC,0.01,VWS V14.01,2013-07-18 04:21:00,
2013-07-18 00:25:00,75.3,75.3,30.15,South,180,0.0,14.7,100,0.01,,SKC,0.01,VWS V14.01,2013-07-18 04:25:00,
2013-07-18 00:26:00,75.3,75.3,30.15,South,180,0.0,14.7,100,0.01,,SKC,0.01,VWS V14.01,2013-07-18 04:26:00,
2013-07-18 00:30:00,75.2,75.2,30.16,South,180,0.0,14.7,100,0.01,,SKC,0.01,VWS V14.01,2013-07-18 04:30:00,
2013-07-18 00:31:00,75.2,75.2,30.16,South,180,0.0,14.7,100,0.01,,SKC,0.01,VWS V14.01,2013-07-18 04:31:00,
2013-07-18 00:35:00,75.1,75.1,30.16,South,180,0.0,14.7,100,0.01,,SKC,0.01,VWS V14.01,2013-07-18 04:35:00,
2013-07-18 00:36:00,75.1,75.1,30.16,South,180,0.0,14.7,100,0.01,,SKC,0.01,VWS V14.01,2013-07-18 04:36:00,
2013-07-18 00:40:00,75.0,75.0,30.16,South,180,0.0,14.7,100,0.01,,SKC,0.01,VWS V14.01,2013-07-18 04:40:00,
2013-07-18 00:41:00,75.1,75.0,30.16,South,180,0.0,14.7,100,0.01,,SKC,0.01,VWS V14.01,2013-07-18 04:41:00,
2013-07-18 00:45:00,75.0,75.0,30.16,South,180,0.0,14.7,100,0.01,,SKC,0.01,VWS V14.01,2013-07-18 04:45:00,
2013-07-18 00:46:00,75.0,75.0,30.16,South,180,0.0,14.7,100,0.01,,SKC,0.01,VWS V14.01,2013-07-18 04:46:00,
2013-07-18 00:47:00,75.0,75.0,30.16,South,180,0.0,14.7,100,0.01,,SKC,0.01,VWS V14.01,2013-07-18 04:47:00,
2013-07-18 00:50:00,75.0,75.0,30.16,South,180,0.0,14.7,100,0.01,,SKC,0.01,VWS V14.01,2013-07-18 04:50:00,
2013-07-18 00:51:00,74.9,74.9,30.16,South,180,0.0,14.7,100,0.01,,SKC,0.01,VWS V14.01,2013-07-18 04:51:00,
2013-07-18 00:52:00,75.0,75.0,30.16,South,180,0.0,14.7,100,0.01,,SKC,0.01,VWS V14.01,2013-07-18 04:52:00,
2013-07-18 00:55:00,74.9,74.9,30.16,South,180,0.0,14.7,100,0.01,,SKC,0.01,VWS V14.01,2013-07-18 04:55:00,
2013-07-18 00:56:00,74.9,74.9,30.16,South,180,0.0,14.7,100,0.01,,SKC,0.01,VWS V14.01,2013-07-18 04:56:00,
2013-07-18 00:57:00,74.9,74.9,30.16,South,180,0.0,14.7,100,0.01,,SKC,0.01,VWS V14.01,2013-07-18 04:57:00,
2013-07-18 01:00:00,74.9,74.9,30.16,South,180,0.0,0.0,100,0.00,,SKC,0.01,VWS V14.01,2013-07-18 05:00:00,
2013-07-18 01:01:00,74.8,74.8,30.16,South,180,0.0,0.0,100,0.00,,SKC,0.01,VWS V14.01,2013-07-18 05:01:00,
2013-07-18 01:02:00,74.9,74.9,30.16,South,180,0.0,0.0,100,0.00,,SKC,0.01,VWS V14.01,2013-07-18 05:02:00,
2013-07-18 01:03:00,74.4,74.4,30.14,South,180,0.0,0.0,100,0.00,,SKC,0.00,VWS V14.01,2013-07-18 05:03:00,
2013-07-18 01:04:00,74.3,74.3,30.14,South,180,0.0,0.0,100,0.00,,SKC,0.00,VWS V14.01,2013-07-18 05:04:00,
2013-07-18 01:05:00,74.8,74.8,30.16,South,180,0.0,0.0,100,0.00,,SKC,0.01,VWS V14.01,2013-07-18 05:05:00,
2013-07-18 01:06:00,74.9,74.9,30.16,South,180,0.0,0.0,100,0.00,,SKC,0.01,VWS V14.01,2013-07-18 05:06:00,
2013-07-18 01:07:00,74.8,74.8,30.16,South,180,0.0,0.0,100,0.00,,SKC,0.01,VWS V14.01,2013-07-18 05:07:00,
2013-07-18 01:10:00,74.8,74.8,30.15,South,180,0.0,0.0,100,0.00,,SKC,0.01,VWS V14.01,2013-07-18 05:10:00,
2013-07-18 01:11:00,74.8,74.8,30.15,South,180,0.0,0.0,100,0.00,,SKC,0.01,VWS V14.01,2013-07-18 05:11:00,
2013-07-18 01:12:00,74.8,74.8,30.15,South,180,0.0,0.0,100,0.00,,SKC,0.01,VWS V14.01,2013-07-18 05:12:00,
2013-07-18 01:13:00,74.8,74.8,30.15,South,180,0.0,0.0,100,0.00,,SKC,0.01,VWS V14.01,2013-07-18 05:13:00,
2013-07-18 01:15:00,74.8,74.8,30.15,South,180,0.0,0.0,100,0.00,,SKC,0.01,VWS V14.01,2013-07-18 05:15:00,
2013-07-18 01:16:00,74.7,74.7,30.15,South,180,0.0,0.0,100,0.00,,SKC,0.01,VWS V14.01,2013-07-18 05:16:00,
2013-07-18 01:17:00,74.7,74.7,30.15,South,180,0.0,0.0,100,0.00,,SKC,0.01,VWS V14.01,2013-07-18 05:17:00,
2013-07-18 01:18:00,74.7,74.7,30.15,South,180,0.0,0.0,100,0.00,,SKC,0.01,VWS V14.01,2013-07-18 05:18:00,
2013-07-18 01:20:00,74.8,74.8,30.15,South,180,0.0,0.0,100,0.00,,SKC,0.01,VWS V14.01,2013-07-18 05:20:00,
2013-07-18 01:21:00,74.7,74.7,30.15,South,180,0.0,0.0,100,0.00,,SKC,0.01,VWS V14.01,2013-07-18 05:21:00,
2013-07-18 01:22:00,74.7,74.7,30.15,South,180,0.0,0.0,100,0.00,,SKC,0.01,VWS V14.01,2013-07-18 05:22:00,
2013-07-18 01:23:00,74.7,74.7,30.15,South,180,0.0,0.0,100,0.00,,SKC,0.01,VWS V14.01,2013-07-18 05:23:00,
2013-07-18 01:26:00,74.7,74.7,30.15,South,180,0.0,0.0,100,0.00,,SKC,0.01,VWS V14.01,2013-07-18 05:26:00,
2013-07-18 01:27:00,74.7,74.7,30.15,South,180,0.0,0.0,100,0.00,,SKC,0.01,VWS V14.01,2013-07-18 05:27:00,
2013-07-18 01:28:00,74.7,74.7,30.15,South,180,0.0,0.0,100,0.00,,SKC,0.01,VWS V14.01,2013-07-18 05:28:00,
2013-07-18 01:31:00,74.6,74.6,30.15,South,180,0.0,0.0,100,0.00,,SKC,0.01,VWS V14.01,2013-07-18 05:31:00,
2013-07-18 01:32:00,74.6,74.6,30.15,South,180,0.0,0.0,100,0.00,,SKC,0.01,VWS V14.01,2013-07-18 05:32:00,
2013-07-18 01:33:00,74.6,74.6,30.15,South,180,0.0,0.0,100,0.00,,SKC,0.01,VWS V14.01,2013-07-18 05:33:00,
2013-07-18 01:36:00,74.5,74.5,30.15,South,180,0.0,0.0,100,0.00,,SKC,0.01,VWS V14.01,2013-07-18 05:36:00,
2013-07-18 01:37:00,74.5,74.5,30.15,South,180,0.0,0.0,100,0.00,,SKC,0.01,VWS V14.01,2013-07-18 05:37:00,
2013-07-18 01:38:00,74.6,74.6,30.15,South,180,0.0,0.0,100,0.00,,SKC,0.01,VWS V14.01,2013-07-18 05:38:00,
2013-07-18 01:41:00,74.5,74.5,30.15,South,180,0.0,0.0,100,0.00,,SKC,0.01,VWS V14.01,2013-07-18 05:41:00,
2013-07-18 01:42:00,74.5,74.5,30.15,South,180,0.0,0.0,100,0.00,,SKC,0.01,VWS V14.01,2013-07-18 05:42:00,
2013-07-18 01:43:00,74.4,74.4,30.15,South,180,0.0,0.0,100,0.00,,SKC,0.01,VWS V14.01,2013-07-18 05:43:00,
2013-07-18 01:46:00,74.4,74.4,30.15,South,180,0.0,0.0,100,0.00,,SKC,0.01,VWS V14.01,2013-07-18 05:46:00,
2013-07-18 01:47:00,74.4,74.4,30.14,South,180,0.0,0.0,100,0.00,,SKC,0.01,VWS V14.01,2013-07-18 05:47:00,
2013-07-18 01:48:00,74.4,74.4,30.14,South,180,0.0,0.0,100,0.00,,SKC,0.01,VWS V14.01,2013-07-18 05:48:00,
2013-07-18 01:51:00,74.4,74.4,30.15,South,180,0.0,0.0,100,0.00,,SKC,0.01,VWS V14.01,2013-07-18 05:51:00,
2013-07-18 01:52:00,74.4,74.4,30.14,South,180,0.0,0.0,100,0.00,,SKC,0.01,VWS V14.01,2013-07-18 05:52:00,
2013-07-18 01:53:00,74.4,74.4,30.14,South,180,0.0,0.0,100,0.00,,SKC,0.01,VWS V14.01,2013-07-18 05:53:00,
2013-07-18 01:58:00,74.4,74.4,30.14,South,180,0.0,0.0,100,0.00,,SKC,0.00,VWS V14.01,2013-07-18 05:58:00,
2013-07-18 01:59:00,74.4,74.4,30.14,South,180,0.0,0.0,100,0.00,,SKC,0.00,VWS V14.01,2013-07-18 05:59:00,
2013-07-18 02:00:00,74.4,74.4,30.14,South,180,0.0,0.0,100,0.00,,SKC,0.00,VWS V14.01,2013-07-18 06:00:00,
2013-07-18 02:01:00,74.4,74.4,30.14,South,180,0.0,0.0,100,0.00,,SKC,0.00,VWS V14.01,2013-07-18 06:01:00,
2013-07-18 02:03:00,74.4,74.4,30.14,South,180,0.0,0.0,100,0.00,,SKC,0.00,VWS V14.01,2013-07-18 06:03:00,
2013-07-18 02:04:00,74.3,74.3,30.14,South,180,0.0,0.0,100,0.00,,SKC,0.00,VWS V14.01,2013-07-18 06:04:00,
2013-07-18 02:05:00,74.4,74.4,30.14,South,180,0.0,0.0,100,0.00,,SKC,0.00,VWS V14.01,2013-07-18 06:05:00,
2013-07-18 02:06:00,74.4,74.4,30.14,South,180,0.0,0.0,100,0.00,,SKC,0.00,VWS V14.01,2013-07-18 06:06:00,
2013-07-18 02:08:00,74.3,74.3,30.14,South,180,0.0,0.0,100,0.00,,SKC,0.00,VWS V14.01,2013-07-18 06:08:00,
2013-07-18 02:09:00,74.3,74.3,30.14,South,180,0.0,0.0,100,0.00,,SKC,0.00,VWS V14.01,2013-07-18 06:09:00,
2013-07-18 02:11:00,74.4,74.4,30.14,South,180,0.0,0.0,100,0.00,,SKC,0.00,VWS V14.01,2013-07-18 06:11:00,
2013-07-18 02:14:00,74.3,74.3,30.14,South,180,0.0,0.0,100,0.00,,SKC,0.00,VWS V14.01,2013-07-18 06:14:00,
2013-07-18 02:16:00,74.3,74.3,30.14,South,180,0.0,0.0,100,0.00,,SKC,0.00,VWS V14.01,2013-07-18 06:16:00,
2013-07-18 02:19:00,74.3,74.3,30.14,South,180,0.0,0.0,100,0.00,,SKC,0.00,VWS V14.01,2013-07-18 06:19:00,
2013-07-18 02:21:00,74.2,74.3,30.14,South,180,0.0,0.0,100,0.00,,SKC,0.00,VWS V14.01,2013-07-18 06:21:00,
2013-07-18 02:24:00,74.3,74.3,30.14,South,180,0.0,0.0,100,0.00,,SKC,0.00,VWS V14.01,2013-07-18 06:24:00,
2013-07-18 02:25:00,74.2,74.3,30.14,South,180,0.0,0.0,100,0.00,,SKC,0.00,VWS V14.01,2013-07-18 06:25:00,
2013-07-18 02:26:00,74.3,74.3,30.14,South,180,0.0,0.0,100,0.00,,SKC,0.00,VWS V14.01,2013-07-18 06:26:00,
2013-07-18 02:29:00,74.2,74.2,30.14,South,180,0.0,0.0,100,0.00,,SKC,0.00,VWS V14.01,2013-07-18 06:29:00,
2013-07-18 02:30:00,74.2,74.2,30.14,South,180,0.0,0.0,100,0.00,,SKC,0.00,VWS V14.01,2013-07-18 06:30:00,
2013-07-18 02:31:00,74.2,74.2,30.14,South,180,0.0,0.0,100,0.00,,SKC,0.00,VWS V14.01,2013-07-18 06:31:00,
2013-07-18 02:32:00,74.2,74.2,30.14,South,180,0.0,0.0,100,0.00,,SKC,0.00,VWS V14.01,2013-07-18 06:32:00,
2013-07-18 02:34:00,74.1,74.1,30.14,South,180,0.0,0.0,100,0.00,,SKC,0.00,VWS V14.01,2013-07-18 06:34:00,
2013-07-18 02:35:00,74.2,74.2,30.14,South,180,0.0,0.0,100,0.00,,SKC,0.00,VWS V14.01,2013-07-18 06:35:00,
2013-07-18 02:36:00,74.1,74.1,30.13,South,180,0.0,0.0,100,0.00,,SKC,0.00,VWS V14.01,2013-07-18 06:36:00,
2013-07-18 02:37:00,74.1,74.1,30.13,South,180,0.0,0.0,100,0.00,,SKC,0.00,VWS V14.01,2013-07-18 06:37:00,
2013-07-18 02:39:00,74.1,74.1,30.13,South,180,0.0,0.0,100,0.00,,SKC,0.00,VWS V14.01,2013-07-18 06:39:00,
2013-07-18 02:40:00,74.1,74.1,30.13,South,180,0.0,0.0,100,0.00,,SKC,0.00,VWS V14.01,2013-07-18 06:40:00,
2013-07-18 02:41:00,74.1,74.1,30.13,South,180,0.0,0.0,100,0.00,,SKC,0.00,VWS V14.01,2013-07-18 06:41:00,
2013-07-18 02:42:00,74.1,74.1,30.13,South,180,0.0,0.0,100,0.00,,SKC,0.00,VWS V14.01,2013-07-18 06:42:00,
2013-07-18 02:45:00,74.1,74.1,30.13,South,180,0.0,0.0,100,0.00,,SKC,0.00,VWS V14.01,2013-07-18 06:45:00,
2013-07-18 02:46:00,74.1,74.1,30.13,South,180,0.0,0.0,100,0.00,,SKC,0.00,VWS V14.01,2013-07-18 06:46:00,
2013-07-18 02:47:00,74.0,74.0,30.13,South,180,0.0,0.0,100,0.00,,SKC,0.00,VWS V14.01,2013-07-18 06:47:00,
2013-07-18 02:50:00,74.0,74.1,30.13,South,180,0.0,0.0,100,0.00,,SKC,0.00,VWS V14.01,2013-07-18 06:50:00,
2013-07-18 02:52:00,74.1,74.1,30.13,South,180,0.0,0.0,100,0.00,,SKC,0.00,VWS V14.01,2013-07-18 06:52:00,
2013-07-18 02:55:00,74.1,74.1,30.13,South,180,0.0,0.0,100,0.00,,SKC,0.00,VWS V14.01,2013-07-18 06:55:00,
2013-07-18 02:57:00,74.0,74.0,30.13,South,180,0.0,0.0,100,0.00,,SKC,0.00,VWS V14.01,2013-07-18 06:57:00,
2013-07-18 02:58:00,74.1,74.1,30.13,South,180,0.0,0.0,100,0.00,,SKC,0.00,VWS V14.01,2013-07-18 06:58:00,
2013-07-18 03:00:00,74.0,74.0,30.13,South,180,0.0,0.0,100,0.00,,SKC,0.00,VWS V14.01,2013-07-18 07:00:00,
2013-07-18 03:02:00,74.0,74.0,30.13,South,180,0.0,0.0,100,0.00,,SKC,0.00,VWS V14.01,2013-07-18 07:02:00,
2013-07-18 03:03:00,74.0,74.0,30.13,South,180,0.0,0.0,100,0.00,,SKC,0.00,VWS V14.01,2013-07-18 07:03:00,
2013-07-18 03:05:00,74.0,74.0,30.13,South,180,0.0,0.0,100,0.00,,SKC,0.00,VWS V14.01,2013-07-18 07:05:00,
2013-07-18 03:07:00,74.0,74.0,30.13,South,180,0.0,0.0,100,0.00,,SKC,0.00,VWS V14.01,2013-07-18 07:07:00,
2013-07-18 03:08:00,74.1,74.1,30.13,South,180,0.0,0.0,100,0.00,,SKC,0.00,VWS V14.01,2013-07-18 07:08:00,
2013-07-18 03:10:00,74.0,74.0,30.13,South,180,0.0,0.0,100,0.00,,SKC,0.00,VWS V14.01,2013-07-18 07:10:00,
2013-07-18 03:11:00,74.0,74.0,30.13,South,180,0.0,0.0,100,0.00,,SKC,0.00,VWS V14.01,2013-07-18 07:11:00,
2013-07-18 03:12:00,74.0,74.0,30.13,South,180,0.0,0.0,100,0.00,,SKC,0.00,VWS V14.01,2013-07-18 07:12:00,
2013-07-18 03:13:00,74.0,74.0,30.13,South,180,0.0,0.0,100,0.00,,SKC,0.00,VWS V14.01,2013-07-18 07:13:00,
2013-07-18 03:15:00,74.0,74.0,30.13,South,180,0.0,0.0,100,0.00,,SKC,0.00,VWS V14.01,2013-07-18 07:15:00,
2013-07-18 03:16:00,74.0,74.0,30.12,South,180,0.0,0.0,100,0.00,,SKC,0.00,VWS V14.01,2013-07-18 07:16:00,
2013-07-18 03:18:00,74.0,74.0,30.12,South,180,0.0,0.0,100,0.00,,SKC,0.00,VWS V14.01,2013-07-18 07:18:00,
2013-07-18 03:20:00,74.0,74.0,30.12,South,180,0.0,0.0,100,0.00,,SKC,0.00,VWS V14.01,2013-07-18 07:20:00,
2013-07-18 03:21:00,74.0,74.0,30.12,South,180,0.0,0.0,100,0.00,,SKC,0.00,VWS V14.01,2013-07-18 07:21:00,
2013-07-18 03:23:00,74.0,74.0,30.12,South,180,0.0,0.0,100,0.00,,SKC,0.00,VWS V14.01,2013-07-18 07:23:00,
2013-07-18 03:25:00,74.0,74.0,30.12,South,180,0.0,0.0,100,0.00,,SKC,0.00,VWS V14.01,2013-07-18 07:25:00,
2013-07-18 03:26:00,73.9,73.9,30.12,South,180,0.0,0.0,100,0.00,,SKC,0.00,VWS V14.01,2013-07-18 07:26:00,
2013-07-18 03:28:00,74.0,74.0,30.12,South,180,0.0,0.0,100,0.00,,SKC,0.00,VWS V14.01,2013-07-18 07:28:00,
2013-07-18 03:30:00,73.8,73.8,30.11,South,180,0.0,0.0,100,0.00,,SKC,0.00,VWS V14.01,2013-07-18 07:30:00,
2013-07-18 03:32:00,73.9,73.8,30.12,South,180,0.0,0.0,100,0.00,,SKC,0.00,VWS V14.01,2013-07-18 07:32:00,
2013-07-18 03:33:00,73.8,73.8,30.12,South,180,0.0,0.0,100,0.00,,SKC,0.00,VWS V14.01,2013-07-18 07:33:00,
2013-07-18 03:36:00,73.8,73.8,30.12,South,180,0.0,0.0,100,0.00,,SKC,0.00,VWS V14.01,2013-07-18 07:36:00,
2013-07-18 03:37:00,73.8,73.8,30.11,South,180,0.0,0.0,100,0.00,,SKC,0.00,VWS V14.01,2013-07-18 07:37:00,
2013-07-18 03:38:00,73.8,73.8,30.12,South,180,0.0,0.0,100,0.00,,SKC,0.00,VWS V14.01,2013-07-18 07:38:00,
2013-07-18 03:41:00,73.8,73.8,30.11,South,180,0.0,0.0,100,0.00,,SKC,0.00,VWS V14.01,2013-07-18 07:41:00,
2013-07-18 03:42:00,73.8,73.8,30.11,South,180,0.0,0.0,100,0.00,,SKC,0.00,VWS V14.01,2013-07-18 07:42:00,
2013-07-18 03:43:00,73.8,73.8,30.11,South,180,0.0,0.0,100,0.00,,SKC,0.00,VWS V14.01,2013-07-18 07:43:00,
2013-07-18 03:44:00,73.8,73.8,30.11,South,180,0.0,0.0,100,0.00,,SKC,0.00,VWS V14.01,2013-07-18 07:44:00,
2013-07-18 03:46:00,73.8,73.8,30.11,South,180,0.0,0.0,100,0.00,,SKC,0.00,VWS V14.01,2013-07-18 07:46:00,
2013-07-18 03:47:00,73.8,73.8,30.11,South,180,0.0,0.0,100,0.00,,SKC,0.00,VWS V14.01,2013-07-18 07:47:00,
2013-07-18 03:48:00,73.8,73.8,30.11,South,180,0.0,0.0,100,0.00,,SKC,0.00,VWS V14.01,2013-07-18 07:48:00,
2013-07-18 03:49:00,73.7,73.7,30.11,South,180,0.0,0.0,100,0.00,,SKC,0.00,VWS V14.01,2013-07-18 07:49:00,
2013-07-18 03:51:00,73.7,73.7,30.11,South,180,0.0,0.0,100,0.00,,SKC,0.00,VWS V14.01,2013-07-18 07:51:00,
2013-07-18 03:52:00,73.7,73.7,30.11,South,180,0.0,0.0,100,0.00,,SKC,0.00,VWS V14.01,2013-07-18 07:52:00,
2013-07-18 03:53:00,73.7,73.7,30.11,South,180,0.0,0.0,100,0.00,,SKC,0.00,VWS V14.01,2013-07-18 07:53:00,
2013-07-18 03:54:00,73.7,73.7,30.11,South,180,0.0,0.0,100,0.00,,SKC,0.00,VWS V14.01,2013-07-18 07:54:00,
2013-07-18 03:56:00,73.6,73.6,30.11,South,180,0.0,0.0,100,0.00,,SKC,0.00,VWS V14.01,2013-07-18 07:56:00,
2013-07-18 03:57:00,73.6,73.6,30.11,South,180,0.0,0.0,100,0.00,,SKC,0.00,VWS V14.01,2013-07-18 07:57:00,
2013-07-18 03:59:00,73.6,73.6,30.11,South,180,0.0,0.0,100,0.00,,SKC,0.00,VWS V14.01,2013-07-18 07:59:00,
2013-07-18 04:01:00,73.5,73.5,30.11,South,180,0.0,0.0,100,0.00,,SKC,0.00,VWS V14.01,2013-07-18 08:01:00,
2013-07-18 04:02:00,73.6,73.6,30.11,South,180,0.0,0.0,100,0.00,,SKC,0.00,VWS V14.01,2013-07-18 08:02:00,
2013-07-18 04:04:00,73.5,73.5,30.11,South,180,0.0,0.0,100,0.00,,SKC,0.00,VWS V14.01,2013-07-18 08:04:00,
2013-07-18 04:06:00,73.6,73.6,30.11,South,180,0.0,0.0,100,0.00,,SKC,0.00,VWS V14.01,2013-07-18 08:06:00,
2013-07-18 04:07:00,73.6,73.6,30.10,South,180,0.0,0.0,100,0.00,,SKC,0.00,VWS V14.01,2013-07-18 08:07:00,
2013-07-18 04:09:00,73.5,73.5,30.10,South,180,0.0,0.0,100,0.00,,SKC,0.00,VWS V14.01,2013-07-18 08:09:00,
2013-07-18 04:10:00,73.5,73.5,30.10,South,180,0.0,0.0,100,0.00,,SKC,0.00,VWS V14.01,2013-07-18 08:10:00,
2013-07-18 04:11:00,73.6,73.6,30.10,South,180,0.0,0.0,100,0.00,,SKC,0.00,VWS V14.01,2013-07-18 08:11:00,
2013-07-18 04:12:00,73.6,73.6,30.10,South,180,0.0,0.0,100,0.00,,SKC,0.00,VWS V14.01,2013-07-18 08:12:00,
2013-07-18 04:14:00,73.5,73.5,30.10,South,180,0.0,0.0,100,0.00,,SKC,0.00,VWS V14.01,2013-07-18 08:14:00,
2013-07-18 04:15:00,73.5,73.5,30.10,South,180,0.0,0.0,100,0.00,,SKC,0.00,VWS V14.01,2013-07-18 08:15:00,
2013-07-18 04:16:00,73.6,73.6,30.10,South,180,0.0,0.0,100,0.00,,SKC,0.00,VWS V14.01,2013-07-18 08:16:00,
2013-07-18 04:18:00,73.5,73.5,30.10,South,180,0.0,0.0,100,0.00,,SKC,0.00,VWS V14.01,2013-07-18 08:18:00,
2013-07-18 04:19:00,73.5,73.5,30.10,South,180,0.0,0.0,100,0.00,,SKC,0.00,VWS V14.01,2013-07-18 08:19:00,
2013-07-18 04:20:00,73.5,73.5,30.10,South,180,0.0,0.0,100,0.00,,SKC,0.00,VWS V14.01,2013-07-18 08:20:00,
2013-07-18 04:21:00,73.5,73.5,30.10,South,180,0.0,0.0,100,0.00,,SKC,0.00,VWS V14.01,2013-07-18 08:21:00,
2013-07-18 04:23:00,73.4,73.4,30.10,South,180,0.0,0.0,100,0.00,,SKC,0.00,VWS V14.01,2013-07-18 08:23:00,
2013-07-18 04:24:00,73.5,73.5,30.10,South,180,0.0,0.0,100,0.00,,SKC,0.00,VWS V14.01,2013-07-18 08:24:00,
2013-07-18 04:25:00,73.5,73.5,30.10,South,180,0.0,0.0,100,0.00,,SKC,0.00,VWS V14.01,2013-07-18 08:25:00,
2013-07-18 04:27:00,73.4,73.4,30.10,South,180,0.0,0.0,100,0.00,,SKC,0.00,VWS V14.01,2013-07-18 08:27:00,
2013-07-18 04:28:00,73.4,73.4,30.10,South,180,0.0,0.0,100,0.00,,SKC,0.00,VWS V14.01,2013-07-18 08:28:00,
2013-07-18 04:29:00,73.4,73.4,30.10,South,180,0.0,0.0,100,0.00,,SKC,0.00,VWS V14.01,2013-07-18 08:29:00,
2013-07-18 04:30:00,73.4,73.4,30.10,South,180,0.0,0.0,100,0.00,,SKC,0.00,VWS V14.01,2013-07-18 08:30:00,
2013-07-18 04:32:00,73.3,73.4,30.10,South,180,0.0,0.0,100,0.00,,SKC,0.00,VWS V14.01,2013-07-18 08:32:00,
2013-07-18 04:33:00,73.3,73.3,30.10,South,180,0.0,0.0,100,0.00,,SKC,0.00,VWS V14.01,2013-07-18 08:33:00,
2013-07-18 04:34:00,73.4,73.4,30.10,South,180,0.0,0.0,100,0.00,,SKC,0.00,VWS V14.01,2013-07-18 08:34:00,
2013-07-18 04:35:00,73.3,73.3,30.10,South,180,0.0,0.0,100,0.00,,SKC,0.00,VWS V14.01,2013-07-18 08:35:00,
2013-07-18 04:36:00,73.4,73.4,30.10,South,180,0.0,0.0,100,0.00,,SKC,0.00,VWS V14.01,2013-07-18 08:36:00,
2013-07-18 04:37:00,73.3,73.3,30.10,South,180,0.0,0.0,100,0.00,,SKC,0.00,VWS V14.01,2013-07-18 08:37:00,
2013-07-18 04:38:00,73.3,73.3,30.10,South,180,0.0,0.0,100,0.00,,SKC,0.00,VWS V14.01,2013-07-18 08:38:00,
2013-07-18 04:39:00,73.4,73.4,30.10,South,180,0.0,0.0,100,0.00,,SKC,0.00,VWS V14.01,2013-07-18 08:39:00,
2013-07-18 04:40:00,73.3,73.3,30.10,South,180,0.0,0.0,100,0.00,,SKC,0.00,VWS V14.01,2013-07-18 08:40:00,
2013-07-18 04:41:00,73.3,73.3,30.10,South,180,0.0,0.0,100,0.00,,SKC,0.00,VWS V14.01,2013-07-18 08:41:00,
2013-07-18 04:42:00,73.3,73.3,30.10,South,180,0.0,0.0,100,0.00,,SKC,0.00,VWS V14.01,2013-07-18 08:42:00,
2013-07-18 04:44:00,73.3,73.4,30.10,South,180,0.0,0.0,100,0.00,,SKC,0.00,VWS V14.01,2013-07-18 08:44:00,
2013-07-18 04:45:00,73.3,73.3,30.10,South,180,0.0,0.0,100,0.00,,SKC,0.00,VWS V14.01,2013-07-18 08:45:00,
2013-07-18 04:46:00,73.3,73.3,30.10,South,180,0.0,0.0,100,0.00,,SKC,0.00,VWS V14.01,2013-07-18 08:46:00,
2013-07-18 04:47:00,73.3,73.3,30.10,South,180,0.0,0.0,100,0.00,,SKC,0.00,VWS V14.01,2013-07-18 08:47:00,
2013-07-18 04:49:00,73.3,73.3,30.10,South,180,0.0,0.0,100,0.00,,SKC,0.00,VWS V14.01,2013-07-18 08:49:00,
2013-07-18 04:50:00,73.3,73.3,30.10,South,180,0.0,0.0,100,0.00,,SKC,0.00,VWS V14.01,2013-07-18 08:50:00,
2013-07-18 04:51:00,73.3,73.3,30.10,South,180,0.0,0.0,100,0.00,,SKC,0.00,VWS V14.01,2013-07-18 08:51:00,
2013-07-18 04:52:00,73.3,73.3,30.10,South,180,0.0,0.0,100,0.00,,SKC,0.00,VWS V14.01,2013-07-18 08:52:00,
2013-07-18 04:54:00,73.3,73.3,30.10,South,180,0.0,0.0,100,0.00,,SKC,0.00,VWS V14.01,2013-07-18 08:54:00,
2013-07-18 04:55:00,73.3,73.3,30.10,South,180,0.0,0.0,100,0.00,,SKC,0.00,VWS V14.01,2013-07-18 08:55:00,
2013-07-18 04:56:00,73.2,73.2,30.10,South,180,0.0,0.0,100,0.00,,SKC,0.00,VWS V14.01,2013-07-18 08:56:00,
2013-07-18 04:57:00,73.2,73.2,30.10,South,180,0.0,0.0,100,0.00,,SKC,0.00,VWS V14.01,2013-07-18 08:57:00,
2013-07-18 04:59:00,73.2,73.3,30.10,South,180,0.0,0.0,100,0.00,,SKC,0.00,VWS V14.01,2013-07-18 08:59:00,
2013-07-18 05:00:00,73.3,73.3,30.10,South,180,0.0,0.0,100,0.00,,SKC,0.00,VWS V14.01,2013-07-18 09:00:00,
2013-07-18 05:01:00,73.3,73.3,30.10,South,180,0.0,0.0,100,0.00,,SKC,0.00,VWS V14.01,2013-07-18 09:01:00,
2013-07-18 05:02:00,73.3,73.2,30.10,South,180,0.0,0.0,100,0.00,,SKC,0.00,VWS V14.01,2013-07-18 09:02:00,
2013-07-18 05:04:00,73.2,73.3,30.10,South,180,0.0,0.0,100,0.00,,SKC,0.00,VWS V14.01,2013-07-18 09:04:00,
2013-07-18 05:05:00,73.2,73.2,30.10,South,180,0.0,0.0,100,0.00,,SKC,0.00,VWS V14.01,2013-07-18 09:05:00,
2013-07-18 05:06:00,73.3,73.3,30.10,South,180,0.0,0.0,100,0.00,,SKC,0.00,VWS V14.01,2013-07-18 09:06:00,
2013-07-18 05:07:00,73.2,73.2,30.10,South,180,0.0,0.0,100,0.00,,SKC,0.00,VWS V14.01,2013-07-18 09:07:00,
2013-07-18 05:10:00,73.2,73.2,30.10,South,180,0.0,0.0,100,0.00,,SKC,0.00,VWS V14.01,2013-07-18 09:10:00,
2013-07-18 05:11:00,73.2,73.2,30.10,South,180,0.0,0.0,100,0.00,,SKC,0.00,VWS V14.01,2013-07-18 09:11:00,
2013-07-18 05:12:00,73.2,73.2,30.10,South,180,0.0,0.0,100,0.00,,SKC,0.00,VWS V14.01,2013-07-18 09:12:00,
2013-07-18 05:15:00,73.1,73.1,30.10,South,180,0.0,0.0,100,0.00,,SKC,0.00,VWS V14.01,2013-07-18 09:15:00,
2013-07-18 05:16:00,73.1,73.1,30.10,South,180,0.0,0.0,100,0.00,,SKC,0.00,VWS V14.01,2013-07-18 09:16:00,
2013-07-18 05:17:00,73.1,73.1,30.10,South,180,0.0,0.0,100,0.00,,SKC,0.00,VWS V14.01,2013-07-18 09:17:00,
2013-07-18 05:20:00,73.1,73.1,30.10,South,180,0.0,0.0,100,0.00,,SKC,0.00,VWS V14.01,2013-07-18 09:20:00,
2013-07-18 05:21:00,73.1,73.1,30.10,South,180,0.0,0.0,100,0.00,,SKC,0.00,VWS V14.01,2013-07-18 09:21:00,
2013-07-18 05:22:00,73.1,73.1,30.10,South,180,0.0,0.0,100,0.00,,SKC,0.00,VWS V14.01,2013-07-18 09:22:00,
2013-07-18 05:25:00,73.1,73.1,30.11,South,180,0.0,0.0,100,0.00,,SKC,0.00,VWS V14.01,2013-07-18 09:25:00,
2013-07-18 05:26:00,73.0,73.0,30.11,South,180,0.0,0.0,100,0.00,,SKC,0.00,VWS V14.01,2013-07-18 09:26:00,
2013-07-18 05:28:00,73.1,73.1,30.11,South,180,0.0,0.0,100,0.00,,SKC,0.00,VWS V14.01,2013-07-18 09:28:00,
2013-07-18 05:30:00,73.0,73.0,30.11,South,180,0.0,0.0,100,0.00,,SKC,0.00,VWS V14.01,2013-07-18 09:30:00,
2013-07-18 05:31:00,73.1,73.1,30.11,South,180,0.0,0.0,100,0.00,,SKC,0.00,VWS V14.01,2013-07-18 09:31:00,
2013-07-18 05:33:00,73.0,73.0,30.11,South,180,0.0,0.0,100,0.00,,SKC,0.00,VWS V14.01,2013-07-18 09:33:00,
2013-07-18 05:35:00,73.0,73.0,30.11,South,180,0.0,0.0,100,0.00,,SKC,0.00,VWS V14.01,2013-07-18 09:35:00,
2013-07-18 05:36:00,73.1,73.1,30.11,South,180,0.0,0.0,100,0.00,,SKC,0.00,VWS V14.01,2013-07-18 09:36:00,
2013-07-18 05:37:00,73.1,73.1,30.10,South,180,0.0,0.0,100,0.00,,SKC,0.00,VWS V14.01,2013-07-18 09:37:00,
2013-07-18 05:38:00,73.0,73.0,30.11,South,180,0.0,0.0,100,0.00,,SKC,0.00,VWS V14.01,2013-07-18 09:38:00,
2013-07-18 05:41:00,73.0,73.0,30.10,South,180,0.0,0.0,100,0.00,,SKC,0.00,VWS V14.01,2013-07-18 09:41:00,
2013-07-18 05:42:00,73.0,73.0,30.10,South,180,0.0,0.0,100,0.00,,SKC,0.00,VWS V14.01,2013-07-18 09:42:00,
2013-07-18 05:43:00,72.9,72.9,30.10,South,180,0.0,0.0,100,0.00,,SKC,0.00,VWS V14.01,2013-07-18 09:43:00,
2013-07-18 05:46:00,73.0,73.0,30.10,South,180,0.0,0.0,100,0.00,,SKC,0.00,VWS V14.01,2013-07-18 09:46:00,
2013-07-18 05:47:00,73.0,73.0,30.10,South,180,0.0,0.0,100,0.00,,SKC,0.00,VWS V14.01,2013-07-18 09:47:00,
2013-07-18 05:48:00,73.0,73.0,30.10,South,180,0.0,0.0,100,0.00,,SKC,0.00,VWS V14.01,2013-07-18 09:48:00,
2013-07-18 05:51:00,73.1,73.1,30.10,South,180,0.0,0.0,100,0.00,,SKC,0.00,VWS V14.01,2013-07-18 09:51:00,
2013-07-18 05:52:00,73.1,73.1,30.10,South,180,0.0,0.0,100,0.00,,SKC,0.00,VWS V14.01,2013-07-18 09:52:00,
2013-07-18 05:53:00,73.0,73.0,30.10,South,180,0.0,0.0,100,0.00,,SKC,0.00,VWS V14.01,2013-07-18 09:53:00,
2013-07-18 05:54:00,73.1,73.1,30.10,South,180,0.0,0.0,100,0.00,,SKC,0.00,VWS V14.01,2013-07-18 09:54:00,
2013-07-18 05:56:00,73.1,73.1,30.10,South,180,0.0,0.0,100,0.00,,SKC,0.00,VWS V14.01,2013-07-18 09:56:00,
2013-07-18 05:57:00,73.1,73.1,30.10,South,180,0.0,0.0,100,0.00,,SKC,0.00,VWS V14.01,2013-07-18 09:57:00,
2013-07-18 05:58:00,73.1,73.1,30.10,South,180,0.0,0.0,100,0.00,,SKC,0.00,VWS V14.01,2013-07-18 09:58:00,
2013-07-18 05:59:00,73.1,73.1,30.10,South,180,0.0,0.0,100,0.00,,SKC,0.00,VWS V14.01,2013-07-18 09:59:00,
2013-07-18 06:01:00,73.2,73.2,30.10,South,180,0.0,0.0,100,0.00,,SKC,0.00,VWS V14.01,2013-07-18 10:01:00,
2013-07-18 06:02:00,73.1,73.1,30.10,South,180,0.0,0.0,100,0.00,,SKC,0.00,VWS V14.01,2013-07-18 10:02:00,
2013-07-18 06:03:00,73.1,73.1,30.10,South,180,0.0,0.0,100,0.00,,SKC,0.00,VWS V14.01,2013-07-18 10:03:00,
2013-07-18 06:04:00,73.2,73.2,30.10,South,180,0.0,0.0,100,0.00,,SKC,0.00,VWS V14.01,2013-07-18 10:04:00,
2013-07-18 06:06:00,73.1,73.1,30.10,South,180,0.0,0.0,100,0.00,,SKC,0.00,VWS V14.01,2013-07-18 10:06:00,
2013-07-18 06:07:00,73.1,73.2,30.10,South,180,0.0,0.0,100,0.00,,SKC,0.00,VWS V14.01,2013-07-18 10:07:00,
2013-07-18 06:08:00,73.2,73.2,30.10,South,180,0.0,0.0,100,0.00,,SKC,0.00,VWS V14.01,2013-07-18 10:08:00,
2013-07-18 06:09:00,73.2,73.1,30.10,South,180,0.0,0.0,100,0.00,,SKC,0.00,VWS V14.01,2013-07-18 10:09:00,
2013-07-18 06:12:00,73.2,73.2,30.10,South,180,0.0,0.0,100,0.00,,SKC,0.00,VWS V14.01,2013-07-18 10:12:00,
2013-07-18 06:13:00,73.1,73.1,30.10,South,180,0.0,0.0,100,0.00,,SKC,0.00,VWS V14.01,2013-07-18 10:13:00,
2013-07-18 06:14:00,73.2,73.2,30.10,South,180,0.0,0.0,100,0.00,,SKC,0.00,VWS V14.01,2013-07-18 10:14:00,
2013-07-18 06:17:00,73.2,73.2,30.10,South,180,0.0,0.0,100,0.00,,SKC,0.00,VWS V14.01,2013-07-18 10:17:00,
2013-07-18 06:19:00,73.1,73.1,30.10,South,180,0.0,0.0,100,0.00,,SKC,0.00,VWS V14.01,2013-07-18 10:19:00,
2013-07-18 06:22:00,73.1,73.1,30.10,South,180,0.0,0.0,100,0.00,,SKC,0.00,VWS V14.01,2013-07-18 10:22:00,
2013-07-18 06:24:00,73.1,73.1,30.10,South,180,0.0,0.0,100,0.00,,SKC,0.00,VWS V14.01,2013-07-18 10:24:00,
2013-07-18 06:27:00,73.1,73.1,30.10,South,180,0.0,0.0,100,0.00,,SKC,0.00,VWS V14.01,2013-07-18 10:27:00,
2013-07-18 06:28:00,73.1,73.0,30.10,South,180,0.0,0.0,100,0.00,,SKC,0.00,VWS V14.01,2013-07-18 10:28:00,
2013-07-18 06:29:00,73.1,73.1,30.10,South,180,0.0,0.0,100,0.00,,SKC,0.00,VWS V14.01,2013-07-18 10:29:00,
2013-07-18 06:30:00,73.1,73.1,30.10,South,180,0.0,0.0,100,0.00,,SKC,0.00,VWS V14.01,2013-07-18 10:30:00,
2013-07-18 06:32:00,73.0,73.0,30.10,South,180,0.0,0.0,100,0.00,,SKC,0.00,VWS V14.01,2013-07-18 10:32:00,
2013-07-18 06:33:00,73.0,73.0,30.10,South,180,0.0,0.0,100,0.00,,SKC,0.00,VWS V14.01,2013-07-18 10:33:00,
2013-07-18 06:34:00,72.9,72.9,30.10,South,180,0.0,0.0,100,0.00,,SKC,0.00,VWS V14.01,2013-07-18 10:34:00,
2013-07-18 06:35:00,73.0,73.0,30.10,South,180,0.0,0.0,100,0.00,,SKC,0.00,VWS V14.01,2013-07-18 10:35:00,
2013-07-18 06:37:00,73.0,73.0,30.10,South,180,0.0,0.0,100,0.00,,SKC,0.00,VWS V14.01,2013-07-18 10:37:00,
2013-07-18 06:38:00,73.0,73.0,30.10,South,180,0.0,0.0,100,0.00,,SKC,0.00,VWS V14.01,2013-07-18 10:38:00,
2013-07-18 06:39:00,72.9,72.9,30.10,South,180,0.0,0.0,100,0.00,,SKC,0.00,VWS V14.01,2013-07-18 10:39:00,
2013-07-18 06:40:00,73.0,73.0,30.10,South,180,0.0,0.0,100,0.00,,SKC,0.00,VWS V14.01,2013-07-18 10:40:00,
2013-07-18 06:42:00,72.9,72.9,30.10,South,180,0.0,0.0,100,0.00,,SKC,0.00,VWS V14.01,2013-07-18 10:42:00,
2013-07-18 06:43:00,72.9,72.9,30.11,South,180,0.0,0.0,100,0.00,,SKC,0.00,VWS V14.01,2013-07-18 10:43:00,
2013-07-18 06:44:00,72.9,72.9,30.11,South,180,0.0,0.0,100,0.00,,SKC,0.00,VWS V14.01,2013-07-18 10:44:00,
2013-07-18 06:45:00,72.9,72.9,30.11,South,180,0.0,0.0,100,0.00,,SKC,0.00,VWS V14.01,2013-07-18 10:45:00,
2013-07-18 06:47:00,72.9,72.9,30.11,South,180,0.0,0.0,100,0.00,,SKC,0.00,VWS V14.01,2013-07-18 10:47:00,
2013-07-18 06:48:00,72.9,72.9,30.11,South,180,0.0,0.0,100,0.00,,SKC,0.00,VWS V14.01,2013-07-18 10:48:00,
2013-07-18 06:49:00,72.9,72.9,30.11,South,180,0.0,0.0,100,0.00,,SKC,0.00,VWS V14.01,2013-07-18 10:49:00,
2013-07-18 06:51:00,72.9,72.9,30.10,South,180,0.0,0.0,100,0.00,,SKC,0.00,VWS V14.01,2013-07-18 10:51:00,
2013-07-18 06:52:00,72.9,73.0,30.10,South,180,0.0,0.0,100,0.00,,SKC,0.00,VWS V14.01,2013-07-18 10:52:00,
2013-07-18 06:53:00,72.9,72.9,30.10,South,180,0.0,0.0,100,0.00,,SKC,0.00,VWS V14.01,2013-07-18 10:53:00,
2013-07-18 06:54:00,72.9,72.9,30.10,South,180,0.0,0.0,100,0.00,,SKC,0.00,VWS V14.01,2013-07-18 10:54:00,
2013-07-18 06:56:00,72.9,72.9,30.10,South,180,0.0,0.0,100,0.00,,SKC,0.00,VWS V14.01,2013-07-18 10:56:00,
2013-07-18 06:57:00,72.9,72.9,30.10,South,180,0.0,0.0,100,0.00,,SKC,0.00,VWS V14.01,2013-07-18 10:57:00,
2013-07-18 06:58:00,72.9,72.9,30.10,South,180,0.0,0.0,100,0.00,,SKC,0.00,VWS V14.01,2013-07-18 10:58:00,
2013-07-18 06:59:00,72.9,72.9,30.11,South,180,0.0,0.0,100,0.00,,SKC,0.00,VWS V14.01,2013-07-18 10:59:00,
2013-07-18 07:01:00,72.9,72.9,30.11,South,180,0.0,0.0,100,0.00,,SKC,0.00,VWS V14.01,2013-07-18 11:01:00,
2013-07-18 07:02:00,72.9,72.9,30.10,South,180,0.0,0.0,100,0.00,,SKC,0.00,VWS V14.01,2013-07-18 11:02:00,
2013-07-18 07:03:00,72.9,72.9,30.10,South,180,0.0,0.0,100,0.00,,SKC,0.00,VWS V14.01,2013-07-18 11:03:00,
2013-07-18 07:05:00,72.9,72.9,30.10,South,180,0.0,0.0,100,0.00,,SKC,0.00,VWS V14.01,2013-07-18 11:05:00,
2013-07-18 07:06:00,72.9,72.9,30.10,South,180,0.0,0.0,100,0.00,,SKC,0.00,VWS V14.01,2013-07-18 11:06:00,
2013-07-18 07:07:00,72.9,72.9,30.10,South,180,0.0,0.0,100,0.00,,SKC,0.00,VWS V14.01,2013-07-18 11:07:00,
2013-07-18 07:08:00,72.9,72.9,30.10,South,180,0.0,0.0,100,0.00,,SKC,0.00,VWS V14.01,2013-07-18 11:08:00,
2013-07-18 07:10:00,72.9,72.9,30.10,South,180,0.0,0.0,100,0.00,,SKC,0.00,VWS V14.01,2013-07-18 11:10:00,
2013-07-18 07:11:00,73.0,73.0,30.10,South,180,0.0,0.0,100,0.00,,SKC,0.00,VWS V14.01,2013-07-18 11:11:00,
2013-07-18 07:13:00,72.9,72.9,30.10,South,180,0.0,0.0,100,0.00,,SKC,0.00,VWS V14.01,2013-07-18 11:13:00,
2013-07-18 07:15:00,72.9,72.9,30.10,South,180,0.0,0.0,100,0.00,,SKC,0.00,VWS V14.01,2013-07-18 11:15:00,
2013-07-18 07:16:00,72.9,72.9,30.10,South,180,0.0,0.0,100,0.00,,SKC,0.00,VWS V14.01,2013-07-18 11:16:00,
2013-07-18 07:18:00,72.9,72.9,30.10,South,180,0.0,0.0,100,0.00,,SKC,0.00,VWS V14.01,2013-07-18 11:18:00,
2013-07-18 07:20:00,72.8,72.8,30.10,South,180,0.0,0.0,100,0.00,,SKC,0.00,VWS V14.01,2013-07-18 11:20:00,
2013-07-18 07:21:00,72.9,72.9,30.10,South,180,0.0,0.0,100,0.00,,SKC,0.00,VWS V14.01,2013-07-18 11:21:00,
2013-07-18 07:23:00,72.8,72.8,30.10,South,180,0.0,0.0,100,0.00,,SKC,0.00,VWS V14.01,2013-07-18 11:23:00,
2013-07-18 07:25:00,72.8,72.8,30.10,South,180,0.0,0.0,100,0.00,,SKC,0.00,VWS V14.01,2013-07-18 11:25:00,
2013-07-18 07:26:00,72.9,72.9,30.10,South,180,0.0,0.0,100,0.00,,SKC,0.00,VWS V14.01,2013-07-18 11:26:00,
2013-07-18 07:28:00,72.9,72.9,30.10,South,180,0.0,0.0,100,0.00,,SKC,0.00,VWS V14.01,2013-07-18 11:28:00,
2013-07-18 07:30:00,72.9,72.9,30.10,South,180,0.0,0.0,100,0.00,,SKC,0.00,VWS V14.01,2013-07-18 11:30:00,
2013-07-18 07:32:00,73.1,73.1,30.10,South,180,0.0,0.0,100,0.00,,SKC,0.00,VWS V14.01,2013-07-18 11:32:00,
2013-07-18 07:33:00,73.1,73.1,30.11,South,180,0.0,0.0,100,0.00,,SKC,0.00,VWS V14.01,2013-07-18 11:33:00,
2013-07-18 07:35:00,73.2,73.2,30.10,South,180,0.0,0.0,100,0.00,,SKC,0.00,VWS V14.01,2013-07-18 11:35:00,
2013-07-18 07:37:00,73.3,73.3,30.11,South,180,0.0,0.0,100,0.00,,SKC,0.00,VWS V14.01,2013-07-18 11:37:00,
2013-07-18 07:38:00,73.3,73.3,30.11,South,180,0.0,0.0,100,0.00,,SKC,0.00,VWS V14.01,2013-07-18 11:38:00,
2013-07-18 07:40:00,73.4,73.4,30.11,South,180,0.0,0.0,100,0.00,,SKC,0.00,VWS V14.01,2013-07-18 11:40:00,
2013-07-18 07:42:00,73.5,73.5,30.11,South,180,0.0,0.0,100,0.00,,SKC,0.00,VWS V14.01,2013-07-18 11:42:00,
2013-07-18 07:43:00,73.5,73.6,30.11,South,180,0.0,0.0,100,0.00,,SKC,0.00,VWS V14.01,2013-07-18 11:43:00,
2013-07-18 07:45:00,73.6,73.6,30.11,South,180,0.0,0.0,100,0.00,,SKC,0.00,VWS V14.01,2013-07-18 11:45:00,
2013-07-18 07:48:00,73.7,73.7,30.10,South,180,0.0,0.0,100,0.00,,SKC,0.00,VWS V14.01,2013-07-18 11:48:00,
2013-07-18 07:49:00,73.7,73.7,30.10,South,180,0.0,0.0,100,0.00,,SKC,0.00,VWS V14.01,2013-07-18 11:49:00,
2013-07-18 07:50:00,73.8,73.8,30.10,South,180,0.0,0.0,100,0.00,,SKC,0.00,VWS V14.01,2013-07-18 11:50:00,
2013-07-18 07:53:00,73.8,73.8,30.10,South,180,0.0,0.0,100,0.00,,SKC,0.00,VWS V14.01,2013-07-18 11:53:00,
2013-07-18 07:54:00,73.8,73.8,30.10,South,180,0.0,0.0,100,0.00,,SKC,0.00,VWS V14.01,2013-07-18 11:54:00,
2013-07-18 07:55:00,73.9,73.9,30.10,South,180,0.0,0.0,100,0.00,,SKC,0.00,VWS V14.01,2013-07-18 11:55:00,
2013-07-18 07:58:00,73.9,73.9,30.10,South,180,0.0,0.0,100,0.00,,SKC,0.00,VWS V14.01,2013-07-18 11:58:00,
2013-07-18 07:59:00,73.9,73.9,30.10,South,180,0.0,0.0,100,0.00,,SKC,0.00,VWS V14.01,2013-07-18 11:59:00,
2013-07-18 08:00:00,73.9,73.9,30.10,South,180,0.0,0.0,100,0.00,,SKC,0.00,VWS V14.01,2013-07-18 12:00:00,
2013-07-18 08:03:00,74.0,74.0,30.10,South,180,0.0,0.0,100,0.00,,SKC,0.00,VWS V14.01,2013-07-18 12:03:00,
2013-07-18 08:04:00,74.0,74.0,30.10,South,180,0.0,0.0,100,0.00,,SKC,0.00,VWS V14.01,2013-07-18 12:04:00,
2013-07-18 08:05:00,74.0,74.0,30.10,South,180,0.0,0.0,100,0.00,,SKC,0.00,VWS V14.01,2013-07-18 12:05:00,
2013-07-18 08:06:00,74.0,74.0,30.10,South,180,0.0,0.0,100,0.00,,SKC,0.00,VWS V14.01,2013-07-18 12:06:00,
2013-07-18 08:09:00,74.2,74.2,30.10,South,180,0.0,0.0,100,0.00,,SKC,0.00,VWS V14.01,2013-07-18 12:09:00,
2013-07-18 08:11:00,74.2,74.2,30.10,South,180,0.0,0.0,100,0.00,,SKC,0.00,VWS V14.01,2013-07-18 12:11:00,
2013-07-18 08:14:00,74.3,74.3,30.10,South,180,0.0,0.0,100,0.00,,SKC,0.00,VWS V14.01,2013-07-18 12:14:00,
2013-07-18 08:16:00,74.4,74.4,30.10,South,180,0.0,0.0,100,0.00,,SKC,0.00,VWS V14.01,2013-07-18 12:16:00,
2013-07-18 08:19:00,74.4,74.4,30.10,South,180,0.0,0.0,100,0.00,,SKC,0.00,VWS V14.01,2013-07-18 12:19:00,
2013-07-18 08:21:00,74.4,74.4,30.10,South,180,0.0,0.0,100,0.00,,SKC,0.00,VWS V14.01,2013-07-18 12:21:00,
2013-07-18 08:24:00,74.6,74.6,30.11,South,180,0.0,0.0,100,0.00,,SKC,0.00,VWS V14.01,2013-07-18 12:24:00,
2013-07-18 08:26:00,74.6,74.6,30.11,South,180,0.0,0.0,100,0.00,,SKC,0.00,VWS V14.01,2013-07-18 12:26:00,
2013-07-18 08:29:00,74.7,74.7,30.11,South,180,0.0,0.0,100,0.00,,SKC,0.00,VWS V14.01,2013-07-18 12:29:00,
2013-07-18 08:30:00,74.8,74.8,30.11,South,180,0.0,0.0,100,0.00,,SKC,0.00,VWS V14.01,2013-07-18 12:30:00,
2013-07-18 08:31:00,74.8,74.8,30.12,South,180,0.0,0.0,100,0.00,,SKC,0.00,VWS V14.01,2013-07-18 12:31:00,
2013-07-18 08:32:00,74.8,74.8,30.12,South,180,0.0,0.0,100,0.00,,SKC,0.00,VWS V14.01,2013-07-18 12:32:00,
2013-07-18 08:34:00,74.9,74.9,30.11,South,180,0.0,0.0,100,0.00,,SKC,0.00,VWS V14.01,2013-07-18 12:34:00,
2013-07-18 08:35:00,74.9,74.9,30.11,South,180,0.0,0.0,100,0.00,,SKC,0.00,VWS V14.01,2013-07-18 12:35:00,
2013-07-18 08:37:00,75.0,75.1,30.12,South,180,0.0,0.0,100,0.00,,SKC,0.00,VWS V14.01,2013-07-18 12:37:00,
2013-07-18 08:39:00,75.2,75.2,30.12,South,180,0.0,0.0,100,0.00,,SKC,0.00,VWS V14.01,2013-07-18 12:39:00,
2013-07-18 08:40:00,75.2,75.2,30.12,South,180,0.0,0.0,100,0.00,,SKC,0.00,VWS V14.01,2013-07-18 12:40:00,
2013-07-18 08:42:00,75.4,75.4,30.12,South,180,0.0,0.0,100,0.00,,SKC,0.00,VWS V14.01,2013-07-18 12:42:00,
2013-07-18 08:44:00,75.6,75.6,30.12,South,180,0.0,8.1,100,0.00,,SKC,0.00,VWS V14.01,2013-07-18 12:44:00,
2013-07-18 08:45:00,75.6,75.6,30.12,South,180,0.0,8.1,100,0.00,,SKC,0.00,VWS V14.01,2013-07-18 12:45:00,
2013-07-18 08:47:00,75.7,75.8,30.12,North,359,0.0,8.1,100,0.00,,SKC,0.00,VWS V14.01,2013-07-18 12:47:00,
2013-07-18 08:50:00,75.9,75.9,30.12,North,359,0.0,8.1,100,0.00,,SKC,0.00,VWS V14.01,2013-07-18 12:50:00,
2013-07-18 08:52:00,76.1,76.1,30.12,North,359,0.0,8.1,100,0.00,,SKC,0.00,VWS V14.01,2013-07-18 12:52:00,
2013-07-18 08:55:00,76.2,76.2,30.12,North,359,0.0,8.1,100,0.00,,SKC,0.00,VWS V14.01,2013-07-18 12:55:00,
2013-07-18 08:56:00,76.2,76.2,30.12,North,359,0.0,8.1,100,0.00,,SKC,0.00,VWS V14.01,2013-07-18 12:56:00,
2013-07-18 08:57:00,76.2,76.2,30.12,North,359,0.0,8.1,100,0.00,,SKC,0.00,VWS V14.01,2013-07-18 12:57:00,
2013-07-18 09:00:00,76.4,76.4,30.12,North,359,0.0,8.1,100,0.00,,SKC,0.00,VWS V14.01,2013-07-18 13:00:00,
2013-07-18 09:01:00,76.4,76.4,30.13,North,359,0.0,8.1,100,0.00,,SKC,0.00,VWS V14.01,2013-07-18 13:01:00,
2013-07-18 09:02:00,76.4,76.4,30.12,North,359,0.0,8.1,100,0.00,,SKC,0.00,VWS V14.01,2013-07-18 13:02:00,
2013-07-18 09:05:00,76.7,76.7,30.13,North,359,0.0,8.1,100,0.00,,SKC,0.00,VWS V14.01,2013-07-18 13:05:00,
2013-07-18 09:06:00,76.7,76.7,30.13,North,359,0.0,8.1,100,0.00,,SKC,0.00,VWS V14.01,2013-07-18 13:06:00,
2013-07-18 09:07:00,76.8,76.8,30.13,North,359,0.0,8.1,100,0.00,,SKC,0.00,VWS V14.01,2013-07-18 13:07:00,
2013-07-18 09:11:00,77.0,77.0,30.12,North,359,0.0,8.1,100,0.00,,SKC,0.00,VWS V14.01,2013-07-18 13:11:00,
2013-07-18 09:12:00,77.1,77.1,30.13,North,359,0.0,8.1,100,0.00,,SKC,0.00,VWS V14.01,2013-07-18 13:12:00,
2013-07-18 09:16:00,77.4,77.4,30.13,North,359,0.0,8.1,100,0.00,,SKC,0.00,VWS V14.01,2013-07-18 13:16:00,
2013-07-18 09:17:00,77.4,77.4,30.13,North,359,0.0,8.1,100,0.00,,SKC,0.00,VWS V14.01,2013-07-18 13:17:00,
2013-07-18 09:18:00,77.5,77.5,30.13,North,359,0.0,8.1,100,0.00,,SKC,0.00,VWS V14.01,2013-07-18 13:18:00,
2013-07-18 09:21:00,77.9,77.9,30.13,North,359,0.0,8.1,100,0.00,,SKC,0.00,VWS V14.01,2013-07-18 13:21:00,
2013-07-18 09:22:00,77.9,77.9,30.13,North,359,0.0,8.1,100,0.00,,SKC,0.00,VWS V14.01,2013-07-18 13:22:00,
2013-07-18 09:23:00,78.0,78.0,30.13,North,359,0.0,8.1,100,0.00,,SKC,0.00,VWS V14.01,2013-07-18 13:23:00,
2013-07-18 09:26:00,78.3,78.3,30.13,North,359,0.0,8.1,100,0.00,,SKC,0.00,VWS V14.01,2013-07-18 13:26:00,
2013-07-18 09:27:00,78.2,78.2,30.13,North,359,0.0,8.1,100,0.00,,SKC,0.00,VWS V14.01,2013-07-18 13:27:00,
2013-07-18 09:28:00,78.2,78.3,30.13,North,359,0.0,8.1,100,0.00,,SKC,0.00,VWS V14.01,2013-07-18 13:28:00,
2013-07-18 09:31:00,78.3,78.3,30.13,North,359,0.0,8.1,100,0.00,,SKC,0.00,VWS V14.01,2013-07-18 13:31:00,
2013-07-18 09:32:00,78.4,78.4,30.13,North,359,0.0,8.1,100,0.00,,SKC,0.00,VWS V14.01,2013-07-18 13:32:00,
2013-07-18 09:33:00,78.4,78.4,30.13,North,359,0.0,8.1,100,0.00,,SKC,0.00,VWS V14.01,2013-07-18 13:33:00,
2013-07-18 09:36:00,78.7,78.7,30.13,North,359,0.0,8.1,100,0.00,,SKC,0.00,VWS V14.01,2013-07-18 13:36:00,
2013-07-18 09:37:00,78.8,78.8,30.13,North,359,0.0,8.1,100,0.00,,SKC,0.00,VWS V14.01,2013-07-18 13:37:00,
2013-07-18 09:38:00,78.8,78.8,30.13,North,359,0.0,8.1,100,0.00,,SKC,0.00,VWS V14.01,2013-07-18 13:38:00,
2013-07-18 09:42:00,79.1,79.1,30.14,North,359,0.0,8.1,100,0.00,,SKC,0.00,VWS V14.01,2013-07-18 13:42:00,
2013-07-18 09:43:00,79.2,79.2,30.14,North,359,0.0,8.1,100,0.00,,SKC,0.00,VWS V14.01,2013-07-18 13:43:00,
2013-07-18 09:47:00,79.7,79.7,30.14,North,359,0.0,8.1,100,0.00,,SKC,0.00,VWS V14.01,2013-07-18 13:47:00,
2013-07-18 09:48:00,79.8,79.8,30.14,North,359,0.0,8.1,100,0.00,,SKC,0.00,VWS V14.01,2013-07-18 13:48:00,
2013-07-18 09:52:00,80.0,80.1,30.14,North,359,0.0,8.1,100,0.00,,SKC,0.00,VWS V14.01,2013-07-18 13:52:00,
2013-07-18 09:53:00,80.1,80.1,30.13,North,359,0.0,8.1,100,0.00,,SKC,0.00,VWS V14.01,2013-07-18 13:53:00,
2013-07-18 09:54:00,80.1,80.0,30.14,North,359,0.0,8.1,100,0.00,,SKC,0.00,VWS V14.01,2013-07-18 13:54:00,
2013-07-18 09:57:00,80.2,80.2,30.14,North,359,0.0,8.1,100,0.00,,SKC,0.00,VWS V14.01,2013-07-18 13:57:00,
2013-07-18 09:58:00,80.3,80.3,30.14,North,359,0.0,8.1,100,0.00,,SKC,0.00,VWS V14.01,2013-07-18 13:58:00,
2013-07-18 09:59:00,80.3,80.3,30.14,North,359,0.0,8.1,100,0.00,,SKC,0.00,VWS V14.01,2013-07-18 13:59:00,
2013-07-18 10:00:00,80.3,80.2,30.14,North,359,0.0,8.1,100,0.00,,SKC,0.00,VWS V14.01,2013-07-18 14:00:00,
2013-07-18 10:02:00,80.3,80.3,30.14,North,359,0.0,8.1,100,0.00,,SKC,0.00,VWS V14.01,2013-07-18 14:02:00,
2013-07-18 10:03:00,80.4,80.4,30.14,North,359,0.0,8.1,100,0.00,,SKC,0.00,VWS V14.01,2013-07-18 14:03:00,
2013-07-18 10:04:00,80.4,80.3,30.14,North,359,0.0,8.1,100,0.00,,SKC,0.00,VWS V14.01,2013-07-18 14:04:00,
2013-07-18 10:05:00,80.5,80.4,30.14,SSE,163,0.0,8.1,100,0.00,,SKC,0.00,VWS V14.01,2013-07-18 14:05:00,
2013-07-18 10:07:00,80.8,80.5,30.14,SSE,163,0.0,8.1,99,0.00,,SKC,0.00,VWS V14.01,2013-07-18 14:07:00,
2013-07-18 10:08:00,80.8,80.3,30.14,SSE,163,0.0,8.1,98,0.00,,SKC,0.00,VWS V14.01,2013-07-18 14:08:00,
2013-07-18 10:09:00,80.8,80.4,30.14,SSE,163,0.0,8.1,99,0.00,,SKC,0.00,VWS V14.01,2013-07-18 14:09:00,
2013-07-18 10:10:00,80.9,80.6,30.14,SSE,163,0.0,8.1,99,0.00,,SKC,0.00,VWS V14.01,2013-07-18 14:10:00,
2013-07-18 10:12:00,81.3,81.1,30.14,SSE,163,0.0,8.1,99,0.00,,SKC,0.00,VWS V14.01,2013-07-18 14:12:00,
2013-07-18 10:13:00,81.3,81.1,30.14,SSE,163,0.0,8.1,99,0.00,,SKC,0.00,VWS V14.01,2013-07-18 14:13:00,
2013-07-18 10:14:00,81.3,81.1,30.14,South,170,2.9,9.6,99,0.00,,SKC,0.00,VWS V14.01,2013-07-18 14:14:00,
2013-07-18 10:15:00,81.5,81.4,30.14,South,170,0.0,9.6,99,0.00,,SKC,0.00,VWS V14.01,2013-07-18 14:15:00,
2013-07-18 10:17:00,81.7,81.0,30.13,South,170,0.0,9.6,98,0.00,,SKC,0.00,VWS V14.01,2013-07-18 14:17:00,
2013-07-18 10:18:00,81.7,80.9,30.14,South,170,0.0,9.6,98,0.00,,SKC,0.00,VWS V14.01,2013-07-18 14:18:00,
2013-07-18 10:19:00,81.7,80.9,30.14,South,170,0.0,9.6,97,0.00,,SKC,0.00,VWS V14.01,2013-07-18 14:19:00,
2013-07-18 10:20:00,81.7,80.9,30.14,South,170,0.0,9.6,98,0.00,,SKC,0.00,VWS V14.01,2013-07-18 14:20:00,
2013-07-18 10:23:00,81.8,81.0,30.14,South,170,0.0,9.6,98,0.00,,SKC,0.00,VWS V14.01,2013-07-18 14:23:00,
2013-07-18 10:24:00,81.9,81.2,30.13,South,170,0.0,9.6,98,0.00,,SKC,0.00,VWS V14.01,2013-07-18 14:24:00,
2013-07-18 10:25:00,82.0,81.3,30.14,South,170,0.0,9.6,98,0.00,,SKC,0.00,VWS V14.01,2013-07-18 14:25:00,
2013-07-18 10:28:00,82.3,81.5,30.14,South,170,0.0,9.6,97,0.00,,SKC,0.00,VWS V14.01,2013-07-18 14:28:00,
2013-07-18 10:29:00,82.3,81.3,30.14,South,170,0.0,9.6,97,0.00,,SKC,0.00,VWS V14.01,2013-07-18 14:29:00,
2013-07-18 10:30:00,82.4,81.6,30.14,South,170,0.0,9.6,97,0.00,,SKC,0.00,VWS V14.01,2013-07-18 14:30:00,
2013-07-18 10:33:00,82.6,81.7,30.14,South,170,0.0,9.6,97,0.00,,SKC,0.00,VWS V14.01,2013-07-18 14:33:00,
2013-07-18 10:34:00,82.7,81.8,30.14,South,170,0.0,9.6,97,0.00,,SKC,0.00,VWS V14.01,2013-07-18 14:34:00,
2013-07-18 10:35:00,82.6,81.6,30.14,South,170,0.0,9.6,97,0.00,,SKC,0.00,VWS V14.01,2013-07-18 14:35:00,
2013-07-18 10:39:00,82.9,82.0,30.14,South,170,0.0,9.6,97,0.00,,SKC,0.00,VWS V14.01,2013-07-18 14:39:00,
2013-07-18 10:40:00,82.8,81.7,30.14,South,170,0.0,9.6,96,0.00,,SKC,0.00,VWS V14.01,2013-07-18 14:40:00,
2013-07-18 10:44:00,82.6,81.6,30.15,South,170,0.0,9.6,97,0.00,,SKC,0.00,VWS V14.01,2013-07-18 14:44:00,
2013-07-18 10:45:00,82.4,81.3,30.15,South,170,0.0,9.6,97,0.00,,SKC,0.00,VWS V14.01,2013-07-18 14:45:00,
2013-07-18 10:49:00,80.6,78.7,30.15,South,170,0.0,9.6,94,0.00,,SKC,0.00,VWS V14.01,2013-07-18 14:49:00,
2013-07-18 10:50:00,80.4,78.8,30.15,South,170,0.0,9.6,95,0.00,,SKC,0.00,VWS V14.01,2013-07-18 14:50:00,
2013-07-18 10:51:00,80.1,78.7,30.15,South,170,0.0,9.6,95,0.00,,SKC,0.00,VWS V14.01,2013-07-18 14:51:00,
2013-07-18 10:54:00,79.4,78.4,30.15,South,170,0.0,9.6,97,0.00,,SKC,0.00,VWS V14.01,2013-07-18 14:54:00,
2013-07-18 10:55:00,79.3,78.4,30.15,South,170,0.0,9.6,97,0.00,,SKC,0.00,VWS V14.01,2013-07-18 14:55:00,
2013-07-18 10:56:00,79.2,78.4,30.15,South,170,0.0,9.6,97,0.00,,SKC,0.00,VWS V14.01,2013-07-18 14:56:00,
2013-07-18 11:00:00,78.8,78.2,30.16,North,359,0.0,9.6,98,0.00,,SKC,0.00,VWS V14.01,2013-07-18 15:00:00,
2013-07-18 11:01:00,78.7,78.1,30.15,North,359,0.0,9.6,98,0.00,,SKC,0.00,VWS V14.01,2013-07-18 15:01:00,
2013-07-18 11:05:00,78.2,77.6,30.16,North,359,0.0,9.6,98,0.00,,SKC,0.00,VWS V14.01,2013-07-18 15:05:00,
2013-07-18 11:06:00,78.2,77.6,30.16,North,359,0.0,9.6,98,0.00,,SKC,0.00,VWS V14.01,2013-07-18 15:06:00,
2013-07-18 11:10:00,77.9,77.4,30.15,North,359,0.0,9.6,98,0.00,,SKC,0.00,VWS V14.01,2013-07-18 15:10:00,
2013-07-18 11:11:00,77.9,77.4,30.16,North,359,0.0,9.6,98,0.00,,SKC,0.00,VWS V14.01,2013-07-18 15:11:00,
2013-07-18 11:15:00,77.3,77.1,30.16,North,359,0.0,9.6,99,0.00,,SKC,0.00,VWS V14.01,2013-07-18 15:15:00,
2013-07-18 11:16:00,77.2,77.1,30.16,North,359,0.0,9.6,100,0.00,,SKC,0.00,VWS V14.01,2013-07-18 15:16:00,
2013-07-18 11:20:00,76.6,76.6,30.16,North,359,0.0,9.6,100,0.00,,SKC,0.00,VWS V14.01,2013-07-18 15:20:00,
2013-07-18 11:21:00,76.6,76.7,30.17,North,359,0.0,9.6,100,0.00,,SKC,0.00,VWS V14.01,2013-07-18 15:21:00,
2013-07-18 11:22:00,76.6,76.6,30.17,North,359,0.0,9.6,100,0.00,,SKC,0.00,VWS V14.01,2013-07-18 15:22:00,
2013-07-18 11:25:00,76.5,76.5,30.17,North,359,0.0,9.6,100,0.00,,SKC,0.00,VWS V14.01,2013-07-18 15:25:00,
2013-07-18 11:26:00,76.5,76.6,30.16,North,359,0.0,9.6,100,0.00,,SKC,0.00,VWS V14.01,2013-07-18 15:26:00,
2013-07-18 11:27:00,76.5,76.5,30.17,North,359,0.0,9.6,100,0.00,,SKC,0.00,VWS V14.01,2013-07-18 15:27:00,
2013-07-18 11:31:00,76.2,76.2,30.16,North,359,0.5,9.6,100,0.00,,SKC,0.00,VWS V14.01,2013-07-18 15:31:00,
2013-07-18 11:32:00,76.2,76.2,30.16,North,359,0.0,9.6,100,0.00,,SKC,0.00,VWS V14.01,2013-07-18 15:32:00,
2013-07-18 11:36:00,76.2,76.1,30.16,North,359,0.0,9.6,100,0.00,,SKC,0.00,VWS V14.01,2013-07-18 15:36:00,
2013-07-18 11:37:00,76.1,76.1,30.16,North,359,0.0,9.6,100,0.00,,SKC,0.00,VWS V14.01,2013-07-18 15:37:00,
2013-07-18 11:41:00,76.1,76.1,30.16,North,359,0.0,9.6,100,0.00,,SKC,0.00,VWS V14.01,2013-07-18 15:41:00,
2013-07-18 11:42:00,76.2,76.2,30.16,North,359,0.0,9.6,100,0.00,,SKC,0.00,VWS V14.01,2013-07-18 15:42:00,
2013-07-18 11:46:00,76.3,76.3,30.16,North,359,0.0,9.6,100,0.00,,SKC,0.00,VWS V14.01,2013-07-18 15:46:00,
2013-07-18 11:47:00,76.4,76.4,30.15,North,359,0.0,9.6,100,0.00,,SKC,0.00,VWS V14.01,2013-07-18 15:47:00,
2013-07-18 11:48:00,76.4,76.4,30.15,North,359,0.0,9.6,100,0.00,,SKC,0.00,VWS V14.01,2013-07-18 15:48:00,
2013-07-18 11:51:00,76.7,76.7,30.15,North,359,0.0,9.6,100,0.00,,SKC,0.00,VWS V14.01,2013-07-18 15:51:00,
2013-07-18 11:52:00,76.7,76.7,30.15,North,359,0.0,9.6,100,0.00,,SKC,0.00,VWS V14.01,2013-07-18 15:52:00,
2013-07-18 11:53:00,76.7,76.7,30.15,North,359,0.0,9.6,100,0.00,,SKC,0.00,VWS V14.01,2013-07-18 15:53:00,
2013-07-18 11:56:00,77.1,77.1,30.15,North,359,0.0,9.6,100,0.00,,SKC,0.00,VWS V14.01,2013-07-18 15:56:00,
2013-07-18 11:57:00,77.1,77.1,30.15,North,359,0.0,9.6,100,0.00,,SKC,0.00,VWS V14.01,2013-07-18 15:57:00,
2013-07-18 11:58:00,77.2,77.2,30.15,North,359,0.0,9.6,100,0.00,,SKC,0.00,VWS V14.01,2013-07-18 15:58:00,
2013-07-18 12:02:00,77.8,77.7,30.15,North,359,0.0,9.6,100,0.00,,SKC,0.00,VWS V14.01,2013-07-18 16:02:00,
2013-07-18 12:03:00,77.9,77.7,30.15,North,359,0.0,9.6,99,0.00,,SKC,0.00,VWS V14.01,2013-07-18 16:03:00,
2013-07-18 12:07:00,78.2,77.7,30.15,North,359,0.0,9.6,98,0.00,,SKC,0.00,VWS V14.01,2013-07-18 16:07:00,
2013-07-18 12:08:00,78.4,77.7,30.15,SSE,155,0.0,9.6,98,0.00,,SKC,0.00,VWS V14.01,2013-07-18 16:08:00,
2013-07-18 12:12:00,78.5,77.1,30.15,SSE,166,0.0,9.6,97,0.00,,SKC,0.00,VWS V14.01,2013-07-18 16:12:00,
2013-07-18 12:13:00,78.5,77.4,30.15,SSE,166,0.0,9.6,96,0.00,,SKC,0.00,VWS V14.01,2013-07-18 16:13:00,
2013-07-18 12:17:00,78.3,77.0,30.14,North,359,0.0,9.6,96,0.00,,SKC,0.00,VWS V14.01,2013-07-18 16:17:00,
2013-07-18 12:18:00,78.2,77.0,30.14,North,359,0.0,9.6,96,0.00,,SKC,0.00,VWS V14.01,2013-07-18 16:18:00,
2013-07-18 12:19:00,78.1,76.8,30.14,SSE,159,0.0,9.6,96,0.00,,SKC,0.00,VWS V14.01,2013-07-18 16:19:00,
2013-07-18 12:22:00,77.9,76.6,30.15,SSE,159,0.0,9.6,96,0.00,,SKC,0.00,VWS V14.01,2013-07-18 16:22:00,
2013-07-18 12:23:00,78.0,76.9,30.15,SSE,159,0.0,9.6,96,0.00,,SKC,0.00,VWS V14.01,2013-07-18 16:23:00,
2013-07-18 12:24:00,78.0,76.9,30.15,SSE,159,0.0,9.6,96,0.00,,SKC,0.00,VWS V14.01,2013-07-18 16:24:00,
2013-07-18 12:27:00,78.2,77.1,30.15,SSE,159,0.0,9.6,96,0.00,,SKC,0.00,VWS V14.01,2013-07-18 16:27:00,
2013-07-18 12:29:00,78.3,77.3,30.15,SSE,159,0.0,9.6,97,0.00,,SKC,0.00,VWS V14.01,2013-07-18 16:29:00,
2013-07-18 12:32:00,78.5,77.5,30.14,South,173,3.5,9.6,97,0.00,,SKC,0.00,VWS V14.01,2013-07-18 16:32:00,
2013-07-18 12:33:00,78.8,77.7,30.14,South,172,0.0,9.6,96,0.00,,SKC,0.00,VWS V14.01,2013-07-18 16:33:00,
2013-07-18 12:34:00,79.0,78.0,30.14,South,172,0.0,9.6,97,0.00,,SKC,0.00,VWS V14.01,2013-07-18 16:34:00,
2013-07-18 12:37:00,79.2,77.9,30.14,SW,215,0.0,9.6,96,0.00,,SKC,0.00,VWS V14.01,2013-07-18 16:37:00,
2013-07-18 12:38:00,79.3,77.9,30.14,SW,215,0.0,9.6,96,0.00,,SKC,0.00,VWS V14.01,2013-07-18 16:38:00,
2013-07-18 12:39:00,79.3,77.6,30.14,SW,215,0.0,9.6,95,0.00,,SKC,0.00,VWS V14.01,2013-07-18 16:39:00,
2013-07-18 12:42:00,79.7,77.9,30.14,South,177,0.0,9.6,94,0.00,,SKC,0.00,VWS V14.01,2013-07-18 16:42:00,
2013-07-18 12:43:00,79.7,77.9,30.14,South,177,0.0,9.6,94,0.00,,SKC,0.00,VWS V14.01,2013-07-18 16:43:00,
2013-07-18 12:44:00,79.8,77.8,30.14,South,177,0.0,9.6,94,0.00,,SKC,0.00,VWS V14.01,2013-07-18 16:44:00,
2013-07-18 12:45:00,79.8,77.9,30.14,South,177,0.0,9.6,94,0.00,,SKC,0.00,VWS V14.01,2013-07-18 16:45:00,
2013-07-18 12:48:00,80.1,78.2,30.14,South,177,0.0,9.6,94,0.00,,SKC,0.00,VWS V14.01,2013-07-18 16:48:00,
2013-07-18 12:50:00,80.4,78.2,30.13,South,181,6.5,11.5,93,0.00,,SKC,0.00,VWS V14.01,2013-07-18 16:50:00,
2013-07-18 12:53:00,80.5,78.2,30.13,SSW,207,0.0,11.5,93,0.00,,SKC,0.00,VWS V14.01,2013-07-18 16:53:00,
2013-07-18 12:55:00,80.8,78.1,30.13,SSW,207,0.0,11.5,92,0.00,,SKC,0.00,VWS V14.01,2013-07-18 16:55:00,
2013-07-18 12:58:00,81.4,78.0,30.13,SSW,207,0.0,11.5,89,0.00,,SKC,0.00,VWS V14.01,2013-07-18 16:58:00,
2013-07-18 13:00:00,81.8,77.9,30.13,North,359,0.0,11.5,88,0.00,,SKC,0.00,VWS V14.01,2013-07-18 17:00:00,
2013-07-18 13:03:00,82.5,78.2,30.13,North,359,0.0,11.5,87,0.00,,SKC,0.00,VWS V14.01,2013-07-18 17:03:00,
2013-07-18 13:04:00,82.4,77.8,30.13,North,359,0.0,11.5,86,0.00,,SKC,0.00,VWS V14.01,2013-07-18 17:04:00,
2013-07-18 13:05:00,82.4,76.4,30.13,North,359,0.0,11.5,82,0.00,,SKC,0.00,VWS V14.01,2013-07-18 17:05:00,
2013-07-18 13:08:00,83.0,77.7,30.13,SSW,201,6.8,11.5,84,0.00,,SKC,0.00,VWS V14.01,2013-07-18 17:08:00,
2013-07-18 13:09:00,83.2,77.5,30.13,North,359,0.3,11.5,83,0.00,,SKC,0.00,VWS V14.01,2013-07-18 17:09:00,
2013-07-18 13:10:00,83.4,77.9,30.13,SSW,212,0.0,11.5,84,0.00,,SKC,0.00,VWS V14.01,2013-07-18 17:10:00,
2013-07-18 13:13:00,83.8,78.4,30.12,North,359,6.4,11.5,84,0.00,,SKC,0.00,VWS V14.01,2013-07-18 17:13:00,
2013-07-18 13:14:00,83.9,78.6,30.12,North,359,5.9,11.5,84,0.00,,SKC,0.00,VWS V14.01,2013-07-18 17:14:00,
2013-07-18 13:15:00,84.4,79.1,30.12,SW,225,3.0,11.5,84,0.00,,SKC,0.00,VWS V14.01,2013-07-18 17:15:00,
2013-07-18 13:18:00,84.9,78.2,30.12,SSE,160,5.0,11.5,80,0.00,,SKC,0.00,VWS V14.01,2013-07-18 17:18:00,
2013-07-18 13:19:00,84.9,78.4,30.12,SSW,194,8.8,11.5,81,0.00,,SKC,0.00,VWS V14.01,2013-07-18 17:19:00,
2013-07-18 13:20:00,85.0,77.9,30.12,South,180,0.0,11.5,79,0.00,,SKC,0.00,VWS V14.01,2013-07-18 17:20:00,
2013-07-18 13:24:00,85.3,78.2,30.12,South,183,3.5,11.5,79,0.00,,SKC,0.00,VWS V14.01,2013-07-18 17:24:00,
2013-07-18 13:25:00,85.5,78.1,30.12,South,190,3.1,11.5,78,0.00,,SKC,0.00,VWS V14.01,2013-07-18 17:25:00,
2013-07-18 13:29:00,85.0,77.5,30.11,SSW,201,4.7,11.5,78,0.00,,SKC,0.00,VWS V14.01,2013-07-18 17:29:00,
2013-07-18 13:30:00,85.1,77.9,30.12,South,174,8.8,11.5,79,0.00,,SKC,0.00,VWS V14.01,2013-07-18 17:30:00,
2013-07-18 13:34:00,84.7,77.8,30.12,North,359,0.2,13.0,79,0.00,,SKC,0.00,VWS V14.01,2013-07-18 17:34:00,
2013-07-18 13:35:00,84.6,77.8,30.12,North,359,2.4,13.0,80,0.00,,SKC,0.00,VWS V14.01,2013-07-18 17:35:00,
2013-07-18 13:36:00,84.5,78.4,30.11,South,187,7.2,13.0,82,0.00,,SKC,0.00,VWS V14.01,2013-07-18 17:36:00,
2013-07-18 13:39:00,84.0,79.1,30.12,North,359,0.2,13.0,85,0.00,,SKC,0.00,VWS V14.01,2013-07-18 17:39:00,
2013-07-18 13:40:00,84.0,79.2,30.12,North,359,0.6,13.0,86,0.00,,SKC,0.00,VWS V14.01,2013-07-18 17:40:00,
2013-07-18 13:41:00,83.9,79.2,30.12,SSW,195,6.0,13.0,85,0.00,,SKC,0.00,VWS V14.01,2013-07-18 17:41:00,
2013-07-18 13:44:00,83.7,79.7,30.12,North,359,0.6,13.0,88,0.00,,SKC,0.00,VWS V14.01,2013-07-18 17:44:00,
2013-07-18 13:45:00,83.7,79.8,30.12,North,359,5.7,13.0,88,0.00,,SKC,0.00,VWS V14.01,2013-07-18 17:45:00,
2013-07-18 13:46:00,83.7,79.8,30.12,South,186,4.5,13.0,88,0.00,,SKC,0.00,VWS V14.01,2013-07-18 17:46:00,
2013-07-18 13:50:00,83.7,79.4,30.12,South,188,0.0,13.0,87,0.00,,SKC,0.00,VWS V14.01,2013-07-18 17:50:00,
2013-07-18 13:51:00,83.9,79.8,30.11,SSW,195,5.0,13.0,88,0.00,,SKC,0.00,VWS V14.01,2013-07-18 17:51:00,
2013-07-18 13:55:00,84.1,79.8,30.12,North,359,1.6,13.0,87,0.00,,SKC,0.00,VWS V14.01,2013-07-18 17:55:00,
2013-07-18 13:56:00,84.1,79.8,30.12,North,359,9.3,13.0,87,0.00,,SKC,0.00,VWS V14.01,2013-07-18 17:56:00,
2013-07-18 14:00:00,84.1,80.7,30.12,SSW,200,0.0,13.0,89,0.00,,SKC,0.00,VWS V14.01,2013-07-18 18:00:00,
2013-07-18 14:01:00,84.1,80.7,30.11,SSW,200,0.0,13.0,90,0.00,,SKC,0.00,VWS V14.01,2013-07-18 18:01:00,
2013-07-18 14:05:00,84.1,80.7,30.11,South,190,5.5,13.0,90,0.00,,SKC,0.00,VWS V14.01,2013-07-18 18:05:00,
2013-07-18 14:06:00,84.1,80.8,30.11,SSW,198,2.5,13.0,90,0.00,,SKC,0.00,VWS V14.01,2013-07-18 18:06:00,
2013-07-18 14:10:00,83.9,80.6,30.11,SSW,201,1.2,13.0,90,0.00,,SKC,0.00,VWS V14.01,2013-07-18 18:10:00,
2013-07-18 14:11:00,84.0,80.8,30.11,SSW,201,6.3,13.0,90,0.00,,SKC,0.00,VWS V14.01,2013-07-18 18:11:00,
2013-07-18 14:15:00,83.8,81.0,30.10,South,181,5.1,13.0,91,0.00,,SKC,0.00,VWS V14.01,2013-07-18 18:15:00,
2013-07-18 14:16:00,83.9,81.1,30.11,South,183,4.2,13.0,91,0.00,,SKC,0.00,VWS V14.01,2013-07-18 18:16:00,
2013-07-18 14:17:00,83.9,81.2,30.11,SSW,194,5.6,13.0,92,0.00,,SKC,0.00,VWS V14.01,2013-07-18 18:17:00,
2013-07-18 14:20:00,83.9,81.4,30.10,South,188,4.0,13.0,92,0.00,,SKC,0.00,VWS V14.01,2013-07-18 18:20:00,
2013-07-18 14:21:00,83.9,81.2,30.10,SSE,165,5.3,13.0,92,0.00,,SKC,0.00,VWS V14.01,2013-07-18 18:21:00,
2013-07-18 14:22:00,83.9,81.3,30.10,South,176,5.5,13.0,92,0.00,,SKC,0.00,VWS V14.01,2013-07-18 18:22:00,
2013-07-18 14:26:00,84.0,81.4,30.10,South,186,2.5,13.0,92,0.00,,SKC,0.00,VWS V14.01,2013-07-18 18:26:00,
2013-07-18 14:27:00,84.0,81.4,30.10,SW,236,1.8,13.0,92,0.00,,SKC,0.00,VWS V14.01,2013-07-18 18:27:00,
2013-07-18 14:31:00,83.9,81.5,30.10,SW,217,3.4,13.0,92,0.00,,SKC,0.00,VWS V14.01,2013-07-18 18:31:00,
2013-07-18 14:32:00,84.0,81.6,30.10,WSW,238,5.2,13.0,93,0.00,,SKC,0.00,VWS V14.01,2013-07-18 18:32:00,
2013-07-18 14:36:00,83.9,81.5,30.10,SSE,148,2.1,13.0,92,0.00,,SKC,0.00,VWS V14.01,2013-07-18 18:36:00,
2013-07-18 14:37:00,83.9,81.6,30.10,SW,214,0.0,13.0,93,0.00,,SKC,0.00,VWS V14.01,2013-07-18 18:37:00,
2013-07-18 14:38:00,83.8,81.8,30.10,SW,214,0.0,13.0,94,0.00,,SKC,0.00,VWS V14.01,2013-07-18 18:38:00,
2013-07-18 14:41:00,83.9,81.8,30.10,North,359,0.0,13.0,94,0.00,,SKC,0.00,VWS V14.01,2013-07-18 18:41:00,
2013-07-18 14:42:00,84.0,81.9,30.10,North,359,0.0,13.0,94,0.00,,SKC,0.00,VWS V14.01,2013-07-18 18:42:00,
2013-07-18 14:43:00,83.9,81.7,30.10,North,359,0.0,13.0,93,0.00,,SKC,0.00,VWS V14.01,2013-07-18 18:43:00,
2013-07-18 14:46:00,84.2,82.2,30.10,South,186,1.7,13.0,94,0.00,,SKC,0.00,VWS V14.01,2013-07-18 18:46:00,
2013-07-18 14:47:00,84.2,82.2,30.10,South,186,2.7,13.0,94,0.00,,SKC,0.00,VWS V14.01,2013-07-18 18:47:00,
2013-07-18 14:48:00,84.4,82.5,30.10,SW,231,0.8,13.0,94,0.00,,SKC,0.00,VWS V14.01,2013-07-18 18:48:00,
2013-07-18 14:52:00,84.7,82.0,30.09,South,172,2.3,13.0,92,0.00,,SKC,0.00,VWS V14.01,2013-07-18 18:52:00,
2013-07-18 14:53:00,84.6,81.7,30.10,South,173,5.4,13.0,91,0.00,,SKC,0.00,VWS V14.01,2013-07-18 18:53:00,
2013-07-18 14:57:00,84.3,81.4,30.09,SW,225,1.6,13.0,91,0.00,,SKC,0.00,VWS V14.01,2013-07-18 18:57:00,
2013-07-18 14:58:00,84.1,81.8,30.09,South,187,2.9,13.0,93,0.00,,SKC,0.00,VWS V14.01,2013-07-18 18:58:00,
2013-07-18 15:02:00,84.3,82.1,30.09,SW,218,0.0,13.0,93,0.00,,SKC,0.00,VWS V14.01,2013-07-18 19:02:00,
2013-07-18 15:03:00,84.4,82.2,30.09,SW,218,0.0,13.0,93,0.00,,SKC,0.00,VWS V14.01,2013-07-18 19:03:00,
2013-07-18 15:07:00,84.9,82.2,30.09,SW,218,0.0,13.0,92,0.00,,SKC,0.00,VWS V14.01,2013-07-18 19:07:00,
2013-07-18 15:08:00,84.9,82.2,30.09,SW,218,0.0,13.0,92,0.00,,SKC,0.00,VWS V14.01,2013-07-18 19:08:00,
2013-07-18 15:09:00,84.8,82.4,30.09,SW,218,0.0,13.0,93,0.00,,SKC,0.00,VWS V14.01,2013-07-18 19:09:00,
2013-07-18 15:12:00,84.5,82.0,30.08,North,359,0.0,13.0,92,0.00,,SKC,0.00,VWS V14.01,2013-07-18 19:12:00,
2013-07-18 15:13:00,84.6,82.2,30.08,North,359,0.0,13.0,92,0.00,,SKC,0.00,VWS V14.01,2013-07-18 19:13:00,
2013-07-18 15:14:00,84.5,82.1,30.08,SW,224,4.3,13.0,92,0.00,,SKC,0.00,VWS V14.01,2013-07-18 19:14:00,
2013-07-18 15:18:00,84.1,82.0,30.08,SW,226,0.0,13.0,93,0.00,,SKC,0.00,VWS V14.01,2013-07-18 19:18:00,
2013-07-18 15:19:00,83.9,82.4,30.08,SSW,204,0.0,13.0,95,0.00,,SKC,0.00,VWS V14.01,2013-07-18 19:19:00,
2013-07-18 15:23:00,83.9,82.3,30.08,SW,225,0.0,13.0,95,0.00,,SKC,0.00,VWS V14.01,2013-07-18 19:23:00,
2013-07-18 15:24:00,83.6,82.2,30.08,North,359,0.0,13.0,95,0.00,,SKC,0.00,VWS V14.01,2013-07-18 19:24:00,
2013-07-18 15:28:00,84.0,82.7,30.07,North,359,0.0,13.0,96,0.00,,SKC,0.00,VWS V14.01,2013-07-18 19:28:00,
2013-07-18 15:29:00,84.1,82.8,30.08,SW,217,0.0,13.0,96,0.00,,SKC,0.00,VWS V14.01,2013-07-18 19:29:00,
2013-07-18 15:33:00,84.5,82.4,30.07,North,359,0.0,13.0,94,0.00,,SKC,0.00,VWS V14.01,2013-07-18 19:33:00,
2013-07-18 15:34:00,84.4,82.5,30.07,North,359,0.0,13.0,94,0.00,,SKC,0.00,VWS V14.01,2013-07-18 19:34:00,
2013-07-18 15:38:00,84.4,82.9,30.07,North,359,1.7,13.0,95,0.00,,SKC,0.00,VWS V14.01,2013-07-18 19:38:00,
2013-07-18 15:39:00,84.3,82.8,30.07,North,359,0.0,13.0,95,0.00,,SKC,0.00,VWS V14.01,2013-07-18 19:39:00,
2013-07-18 15:44:00,83.9,82.6,30.07,SW,235,0.9,13.0,96,0.00,,SKC,0.00,VWS V14.01,2013-07-18 19:44:00,
2013-07-18 15:45:00,83.9,82.7,30.07,SSW,205,4.0,13.0,96,0.00,,SKC,0.00,VWS V14.01,2013-07-18 19:45:00,
2013-07-18 15:49:00,83.7,82.6,30.07,North,359,0.0,13.0,96,0.00,,SKC,0.00,VWS V14.01,2013-07-18 19:49:00,
2013-07-18 15:50:00,83.7,82.6,30.07,SW,226,3.6,13.0,97,0.00,,SKC,0.00,VWS V14.01,2013-07-18 19:50:00,
2013-07-18 15:54:00,84.0,82.9,30.06,South,184,0.0,13.0,96,0.00,,SKC,0.00,VWS V14.01,2013-07-18 19:54:00,
2013-07-18 15:55:00,84.0,82.9,30.06,South,183,5.7,13.0,96,0.00,,SKC,0.00,VWS V14.01,2013-07-18 19:55:00,
2013-07-18 15:59:00,84.4,83.2,30.06,SSW,200,4.3,13.0,96,0.00,,SKC,0.00,VWS V14.01,2013-07-18 19:59:00,
2013-07-18 16:00:00,84.5,83.1,30.06,SSW,198,6.6,13.0,96,0.00,,SKC,0.00,VWS V14.01,2013-07-18 20:00:00,
2013-07-18 16:04:00,84.2,83.1,30.06,SSW,212,2.8,13.0,96,0.00,,SKC,0.00,VWS V14.01,2013-07-18 20:04:00,
2013-07-18 16:05:00,84.3,83.1,30.06,SSW,212,0.0,13.0,96,0.00,,SKC,0.00,VWS V14.01,2013-07-18 20:05:00,
2013-07-18 16:09:00,84.4,83.2,30.06,SSW,211,0.0,13.0,96,0.00,,SKC,0.00,VWS V14.01,2013-07-18 20:09:00,
2013-07-18 16:10:00,84.4,83.2,30.06,SSW,211,0.0,13.0,96,0.00,,SKC,0.00,VWS V14.01,2013-07-18 20:10:00,
2013-07-18 16:14:00,84.0,82.9,30.05,South,172,0.0,13.0,97,0.00,,SKC,0.00,VWS V14.01,2013-07-18 20:14:00,
2013-07-18 16:15:00,83.9,82.9,30.05,North,359,0.7,13.0,97,0.00,,SKC,0.00,VWS V14.01,2013-07-18 20:15:00,
2013-07-18 16:19:00,83.6,82.6,30.05,SSW,208,0.5,13.0,97,0.00,,SKC,0.00,VWS V14.01,2013-07-18 20:19:00,
2013-07-18 16:20:00,83.5,82.6,30.05,North,359,1.1,13.0,97,0.00,,SKC,0.00,VWS V14.01,2013-07-18 20:20:00,
2013-07-18 16:21:00,83.6,82.7,30.05,SSW,194,4.6,13.0,97,0.00,,SKC,0.00,VWS V14.01,2013-07-18 20:21:00,
2013-07-18 16:25:00,83.8,83.0,30.05,SW,217,7.6,13.0,97,0.00,,SKC,0.00,VWS V14.01,2013-07-18 20:25:00,
2013-07-18 16:26:00,83.7,82.8,30.05,SSE,165,1.6,13.0,97,0.00,,SKC,0.00,VWS V14.01,2013-07-18 20:26:00,
2013-07-18 16:30:00,83.9,82.9,30.05,North,359,2.5,13.0,97,0.00,,SKC,0.00,VWS V14.01,2013-07-18 20:30:00,
2013-07-18 16:31:00,83.9,83.0,30.04,SSE,149,8.1,13.0,97,0.00,,SKC,0.00,VWS V14.01,2013-07-18 20:31:00,
2013-07-18 16:35:00,83.7,82.8,30.04,South,170,0.0,13.0,97,0.00,,SKC,0.00,VWS V14.01,2013-07-18 20:35:00,
2013-07-18 16:36:00,83.9,82.9,30.04,SW,214,5.8,13.0,97,0.01,,SKC,0.01,VWS V14.01,2013-07-18 20:36:00,
2013-07-18 16:40:00,83.6,82.6,30.04,South,184,3.5,13.0,97,0.01,,SKC,0.01,VWS V14.01,2013-07-18 20:40:00,
2013-07-18 16:41:00,83.6,82.6,30.04,South,173,0.0,13.0,97,0.01,,SKC,0.01,VWS V14.01,2013-07-18 20:41:00,
2013-07-18 16:45:00,84.0,83.0,30.04,SSW,200,3.7,13.0,97,0.01,,SKC,0.01,VWS V14.01,2013-07-18 20:45:00,
2013-07-18 16:46:00,84.0,82.9,30.03,South,191,0.2,13.0,97,0.01,,SKC,0.01,VWS V14.01,2013-07-18 20:46:00,
2013-07-18 16:47:00,84.0,82.9,30.04,North,359,2.2,13.0,97,0.01,,SKC,0.01,VWS V14.01,2013-07-18 20:47:00,
2013-07-18 16:50:00,84.0,83.0,30.04,South,183,0.0,13.0,97,0.01,,SKC,0.01,VWS V14.01,2013-07-18 20:50:00,
2013-07-18 16:51:00,84.0,83.0,30.04,SSW,200,5.5,13.0,97,0.01,,SKC,0.01,VWS V14.01,2013-07-18 20:51:00,
2013-07-18 16:52:00,84.1,83.2,30.04,SSW,200,0.0,13.0,97,0.01,,SKC,0.01,VWS V14.01,2013-07-18 20:52:00,
2013-07-18 16:55:00,84.1,82.8,30.04,North,359,0.0,13.0,96,0.01,,SKC,0.01,VWS V14.01,2013-07-18 20:55:00,
2013-07-18 16:56:00,84.0,82.7,30.04,SW,217,11.1,13.0,96,0.01,,SKC,0.01,VWS V14.01,2013-07-18 20:56:00,
2013-07-18 16:57:00,83.9,82.7,30.04,SSW,197,6.2,13.0,96,0.01,,SKC,0.01,VWS V14.01,2013-07-18 20:57:00,
2013-07-18 17:00:00,83.8,82.8,30.04,SSW,197,0.0,13.0,97,0.01,,SKC,0.01,VWS V14.01,2013-07-18 21:00:00,
2013-07-18 17:01:00,83.7,82.7,30.04,SSW,202,5.5,13.0,97,0.01,,SKC,0.01,VWS V14.01,2013-07-18 21:01:00,
2013-07-18 17:02:00,83.8,82.8,30.04,North,359,0.0,13.0,97,0.01,,SKC,0.01,VWS V14.01,2013-07-18 21:02:00,
2013-07-18 17:05:00,83.9,82.9,30.03,North,359,0.0,13.0,97,0.01,,SKC,0.01,VWS V14.01,2013-07-18 21:05:00,
2013-07-18 17:06:00,84.1,83.0,30.03,North,359,6.2,13.0,97,0.01,,SKC,0.01,VWS V14.01,2013-07-18 21:06:00,
2013-07-18 17:07:00,84.1,83.0,30.03,North,359,0.0,13.0,97,0.01,,SKC,0.01,VWS V14.01,2013-07-18 21:07:00,
2013-07-18 17:08:00,84.1,82.9,30.03,North,359,0.0,13.0,96,0.01,,SKC,0.01,VWS V14.01,2013-07-18 21:08:00,
2013-07-18 17:11:00,84.0,82.8,30.03,WSW,239,6.0,13.0,96,0.01,,SKC,0.01,VWS V14.01,2013-07-18 21:11:00,
2013-07-18 17:12:00,84.0,82.9,30.03,SW,214,0.0,13.0,96,0.01,,SKC,0.01,VWS V14.01,2013-07-18 21:12:00,
2013-07-18 17:13:00,83.9,82.7,30.03,South,172,5.5,13.0,96,0.01,,SKC,0.01,VWS V14.01,2013-07-18 21:13:00,
2013-07-18 17:16:00,83.8,82.6,30.03,South,170,6.0,13.0,96,0.01,,SKC,0.01,VWS V14.01,2013-07-18 21:16:00,
2013-07-18 17:17:00,83.8,82.5,30.03,North,359,1.8,13.0,96,0.01,,SKC,0.01,VWS V14.01,2013-07-18 21:17:00,
2013-07-18 17:18:00,83.8,82.7,30.03,North,359,0.0,13.0,96,0.01,,SKC,0.01,VWS V14.01,2013-07-18 21:18:00,
2013-07-18 17:21:00,83.9,82.7,30.03,SSW,200,5.6,13.0,96,0.01,,SKC,0.01,VWS V14.01,2013-07-18 21:21:00,
2013-07-18 17:22:00,83.9,82.5,30.02,SSW,211,0.0,13.0,96,0.01,,SKC,0.01,VWS V14.01,2013-07-18 21:22:00,
2013-07-18 17:24:00,83.8,82.6,30.03,North,359,0.0,13.0,96,0.01,,SKC,0.01,VWS V14.01,2013-07-18 21:24:00,
2013-07-18 17:26:00,83.8,82.7,30.03,SSW,204,6.8,13.0,96,0.01,,SKC,0.01,VWS V14.01,2013-07-18 21:26:00,
2013-07-18 17:27:00,83.9,82.9,30.03,North,359,0.7,13.0,96,0.01,,SKC,0.01,VWS V14.01,2013-07-18 21:27:00,
2013-07-18 17:28:00,83.9,82.9,30.03,North,359,0.3,13.0,97,0.01,,SKC,0.01,VWS V14.01,2013-07-18 21:28:00,
2013-07-18 17:29:00,83.9,82.9,30.03,SW,232,0.4,13.0,97,0.01,,SKC,0.01,VWS V14.01,2013-07-18 21:29:00,
2013-07-18 17:31:00,84.0,82.8,30.03,South,188,8.0,13.0,96,0.01,,SKC,0.01,VWS V14.01,2013-07-18 21:31:00,
2013-07-18 17:32:00,83.9,82.7,30.03,South,188,0.0,13.0,96,0.01,,SKC,0.01,VWS V14.01,2013-07-18 21:32:00,
2013-07-18 17:33:00,83.9,82.7,30.03,South,188,0.0,13.0,96,0.01,,SKC,0.01,VWS V14.01,2013-07-18 21:33:00,
2013-07-18 17:34:00,83.9,82.8,30.03,North,359,8.8,13.0,97,0.01,,SKC,0.01,VWS V14.01,2013-07-18 21:34:00,
2013-07-18 17:36:00,84.1,83.0,30.03,North,359,0.0,13.0,96,0.01,,SKC,0.01,VWS V14.01,2013-07-18 21:36:00,
2013-07-18 17:37:00,84.0,82.8,30.03,North,359,0.0,13.0,96,0.01,,SKC,0.01,VWS V14.01,2013-07-18 21:37:00,
2013-07-18 17:38:00,84.0,82.7,30.03,North,359,0.0,13.0,96,0.01,,SKC,0.01,VWS V14.01,2013-07-18 21:38:00,
2013-07-18 17:39:00,84.1,82.9,30.03,SSW,201,0.0,13.0,96,0.01,,SKC,0.01,VWS V14.01,2013-07-18 21:39:00,
2013-07-18 17:42:00,84.3,83.0,30.02,SSW,207,0.0,13.0,96,0.01,,SKC,0.01,VWS V14.01,2013-07-18 21:42:00,
2013-07-18 17:43:00,84.4,82.9,30.03,North,359,1.5,13.0,95,0.01,,SKC,0.01,VWS V14.01,2013-07-18 21:43:00,
2013-07-18 17:45:00,84.2,82.7,30.03,North,359,0.0,13.0,95,0.01,,SKC,0.01,VWS V14.01,2013-07-18 21:45:00,
2013-07-18 17:47:00,84.2,82.7,30.03,SW,222,0.0,13.0,95,0.01,,SKC,0.01,VWS V14.01,2013-07-18 21:47:00,
2013-07-18 17:48:00,84.3,82.8,30.03,SW,222,0.0,13.0,95,0.01,,SKC,0.01,VWS V14.01,2013-07-18 21:48:00,
2013-07-18 17:50:00,84.2,82.4,30.03,South,187,4.2,13.0,94,0.01,,SKC,0.01,VWS V14.01,2013-07-18 21:50:00,
2013-07-18 17:52:00,84.2,82.3,30.03,SW,224,8.9,13.0,94,0.01,,SKC,0.01,VWS V14.01,2013-07-18 21:52:00,
2013-07-18 17:53:00,84.1,82.3,30.03,North,359,0.6,13.0,94,0.01,,SKC,0.01,VWS V14.01,2013-07-18 21:53:00,
2013-07-18 17:55:00,84.0,82.6,30.03,South,181,7.1,13.0,95,0.01,,SKC,0.01,VWS V14.01,2013-07-18 21:55:00,
2013-07-18 17:57:00,83.9,82.4,30.03,SW,221,0.4,13.0,95,0.01,,SKC,0.01,VWS V14.01,2013-07-18 21:57:00,
2013-07-18 17:58:00,83.9,82.4,30.02,North,359,2.4,13.0,95,0.01,,SKC,0.01,VWS V14.01,2013-07-18 21:58:00,
2013-07-18 18:00:00,83.9,82.4,30.03,SW,226,2.3,13.0,95,0.01,,SKC,0.01,VWS V14.01,2013-07-18 22:00:00,
2013-07-18 18:02:00,84.0,82.6,30.03,SSW,200,5.6,13.0,96,0.01,,SKC,0.01,VWS V14.01,2013-07-18 22:02:00,
2013-07-18 18:03:00,84.1,82.8,30.03,South,188,6.8,13.0,96,0.01,,SKC,0.01,VWS V14.01,2013-07-18 22:03:00,
2013-07-18 18:04:00,84.0,82.6,30.03,SSW,200,5.7,13.0,96,0.01,,SKC,0.01,VWS V14.01,2013-07-18 22:04:00,
2013-07-18 18:06:00,84.2,82.9,30.03,SW,219,5.1,13.0,96,0.01,,SKC,0.01,VWS V14.01,2013-07-18 22:06:00,
2013-07-18 18:07:00,84.2,82.8,30.03,WSW,242,0.0,13.0,96,0.01,,SKC,0.01,VWS V14.01,2013-07-18 22:07:00,
2013-07-18 18:08:00,84.2,82.8,30.03,South,187,5.5,13.0,96,0.01,,SKC,0.01,VWS V14.01,2013-07-18 22:08:00,
2013-07-18 18:09:00,84.3,82.9,30.03,WSW,249,6.5,13.0,96,0.01,,SKC,0.01,VWS V14.01,2013-07-18 22:09:00,
2013-07-18 18:12:00,84.3,83.1,30.04,SSW,208,1.5,13.0,96,0.01,,SKC,0.01,VWS V14.01,2013-07-18 22:12:00,
2013-07-18 18:13:00,84.2,83.0,30.04,North,359,0.2,13.0,96,0.01,,SKC,0.01,VWS V14.01,2013-07-18 22:13:00,
2013-07-18 18:14:00,84.2,83.0,30.04,North,359,2.1,13.0,96,0.01,,SKC,0.01,VWS V14.01,2013-07-18 22:14:00,
2013-07-18 18:17:00,84.0,82.8,30.03,South,180,0.0,13.0,96,0.01,,SKC,0.01,VWS V14.01,2013-07-18 22:17:00,
2013-07-18 18:18:00,84.0,82.7,30.04,North,359,1.9,13.0,96,0.01,,SKC,0.01,VWS V14.01,2013-07-18 22:18:00,
2013-07-18 18:19:00,83.9,82.7,30.04,SSW,202,1.6,13.0,96,0.01,,SKC,0.01,VWS V14.01,2013-07-18 22:19:00,
2013-07-18 18:22:00,83.8,82.8,30.03,North,359,0.9,13.0,97,0.01,,SKC,0.01,VWS V14.01,2013-07-18 22:22:00,
2013-07-18 18:24:00,83.6,82.7,30.03,North,359,4.1,13.0,97,0.01,,SKC,0.01,VWS V14.01,2013-07-18 22:24:00,
2013-07-18 18:27:00,83.4,82.4,30.03,SSW,198,2.6,13.0,97,0.01,,SKC,0.01,VWS V14.01,2013-07-18 22:27:00,
2013-07-18 18:29:00,83.4,82.5,30.02,North,359,0.0,13.0,97,0.01,,SKC,0.01,VWS V14.01,2013-07-18 22:29:00,
2013-07-18 18:32:00,83.3,82.6,30.02,North,359,5.0,13.0,98,0.01,,SKC,0.01,VWS V14.01,2013-07-18 22:32:00,
2013-07-18 18:34:00,83.2,82.4,30.02,SW,219,0.0,13.0,97,0.01,,SKC,0.01,VWS V14.01,2013-07-18 22:34:00,
2013-07-18 18:37:00,83.0,82.2,30.03,SW,219,0.0,13.0,97,0.01,,SKC,0.01,VWS V14.01,2013-07-18 22:37:00,
2013-07-18 18:39:00,83.1,82.3,30.03,SW,219,0.0,13.0,97,0.01,,SKC,0.01,VWS V14.01,2013-07-18 22:39:00,
2013-07-18 18:40:00,83.1,82.3,30.03,North,359,1.1,13.0,97,0.01,,SKC,0.01,VWS V14.01,2013-07-18 22:40:00,
2013-07-18 18:42:00,83.0,82.2,30.03,North,359,1.4,13.0,97,0.01,,SKC,0.01,VWS V14.01,2013-07-18 22:42:00,
2013-07-18 18:44:00,83.0,82.2,30.04,SSW,212,0.0,13.0,98,0.01,,SKC,0.01,VWS V14.01,2013-07-18 22:44:00,
2013-07-18 18:45:00,83.0,82.2,30.04,North,359,5.1,13.0,98,0.01,,SKC,0.01,VWS V14.01,2013-07-18 22:45:00,
2013-07-18 18:47:00,82.9,82.1,30.04,SSW,195,4.2,13.0,98,0.01,,SKC,0.01,VWS V14.01,2013-07-18 22:47:00,
2013-07-18 18:49:00,82.9,82.2,30.03,SW,217,0.0,13.0,98,0.01,,SKC,0.01,VWS V14.01,2013-07-18 22:49:00,
2013-07-18 18:50:00,83.1,82.3,30.04,WSW,240,0.0,13.0,98,0.01,,SKC,0.01,VWS V14.01,2013-07-18 22:50:00,
2013-07-18 18:52:00,83.0,82.1,30.04,WSW,240,0.0,13.0,97,0.01,,SKC,0.01,VWS V14.01,2013-07-18 22:52:00,
2013-07-18 18:53:00,82.9,82.1,30.03,WSW,240,0.0,13.0,97,0.01,,SKC,0.01,VWS V14.01,2013-07-18 22:53:00,
2013-07-18 18:54:00,82.9,82.1,30.04,WSW,240,0.0,13.0,98,0.01,,SKC,0.01,VWS V14.01,2013-07-18 22:54:00,
2013-07-18 18:55:00,83.0,82.3,30.04,SW,232,1.6,13.0,98,0.01,,SKC,0.01,VWS V14.01,2013-07-18 22:55:00,
2013-07-18 18:58:00,83.0,82.3,30.04,SSW,193,2.4,13.0,98,0.01,,SKC,0.01,VWS V14.01,2013-07-18 22:58:00,
2013-07-18 18:59:00,82.9,82.2,30.04,SSW,207,8.4,13.0,98,0.01,,SKC,0.01,VWS V14.01,2013-07-18 22:59:00,
2013-07-18 19:00:00,82.9,82.2,30.04,SW,226,0.2,13.0,98,0.01,,SKC,0.01,VWS V14.01,2013-07-18 23:00:00,
2013-07-18 19:03:00,82.8,82.2,30.03,North,359,0.5,13.0,98,0.01,,SKC,0.01,VWS V14.01,2013-07-18 23:03:00,
2013-07-18 19:04:00,82.7,82.1,30.03,North,359,0.0,13.0,98,0.01,,SKC,0.01,VWS V14.01,2013-07-18 23:04:00,
2013-07-18 19:05:00,82.7,82.2,30.04,North,359,0.0,13.0,98,0.01,,SKC,0.01,VWS V14.01,2013-07-18 23:05:00,
2013-07-18 19:08:00,82.6,82.1,30.03,North,359,0.0,13.0,98,0.01,,SKC,0.01,VWS V14.01,2013-07-18 23:08:00,
2013-07-18 19:09:00,82.6,82.1,30.04,North,359,0.0,13.0,98,0.01,,SKC,0.01,VWS V14.01,2013-07-18 23:09:00,
2013-07-18 19:10:00,82.6,82.1,30.03,North,359,0.0,13.0,98,0.01,,SKC,0.01,VWS V14.01,2013-07-18 23:10:00,
2013-07-18 19:13:00,82.6,82.1,30.03,SW,226,0.0,13.0,98,0.01,,SKC,0.01,VWS V14.01,2013-07-18 23:13:00,
2013-07-18 19:14:00,82.7,82.3,30.03,SW,226,0.0,13.0,99,0.01,,SKC,0.01,VWS V14.01,2013-07-18 23:14:00,
2013-07-18 19:15:00,82.6,82.2,30.03,SW,226,0.0,13.0,99,0.01,,SKC,0.01,VWS V14.01,2013-07-18 23:15:00,
2013-07-18 19:18:00,82.5,82.2,30.03,SW,226,0.0,13.0,99,0.01,,SKC,0.01,VWS V14.01,2013-07-18 23:18:00,
2013-07-18 19:19:00,82.5,82.2,30.03,SW,226,0.0,13.0,99,0.01,,SKC,0.01,VWS V14.01,2013-07-18 23:19:00,
2013-07-18 19:20:00,82.5,82.2,30.03,SW,226,0.0,13.0,99,0.01,,SKC,0.01,VWS V14.01,2013-07-18 23:20:00,
2013-07-18 19:23:00,82.5,82.2,30.03,SW,214,0.0,13.0,99,0.01,,SKC,0.01,VWS V14.01,2013-07-18 23:23:00,
2013-07-18 19:24:00,82.4,82.2,30.03,North,359,0.4,13.0,99,0.01,,SKC,0.01,VWS V14.01,2013-07-18 23:24:00,
2013-07-18 19:25:00,82.4,82.2,30.03,SW,214,0.0,13.0,99,0.01,,SKC,0.01,VWS V14.01,2013-07-18 23:25:00,
2013-07-18 19:26:00,82.4,82.2,30.03,SW,214,0.0,13.0,99,0.01,,SKC,0.01,VWS V14.01,2013-07-18 23:26:00,
2013-07-18 19:28:00,82.4,82.2,30.03,North,359,0.0,13.0,99,0.01,,SKC,0.01,VWS V14.01,2013-07-18 23:28:00,
2013-07-18 19:29:00,82.5,82.3,30.03,North,359,0.0,13.0,100,0.01,,SKC,0.01,VWS V14.01,2013-07-18 23:29:00,
2013-07-18 19:30:00,82.5,82.4,30.03,North,359,0.0,13.0,100,0.01,,SKC,0.01,VWS V14.01,2013-07-18 23:30:00,
2013-07-18 19:31:00,82.5,82.4,30.03,North,359,0.0,13.0,100,0.01,,SKC,0.01,VWS V14.01,2013-07-18 23:31:00,
2013-07-18 19:34:00,82.5,82.4,30.03,SSW,200,2.7,13.0,100,0.01,,SKC,0.01,VWS V14.01,2013-07-18 23:34:00,
2013-07-18 19:35:00,82.3,82.2,30.03,WSW,245,0.0,13.0,100,0.01,,SKC,0.01,VWS V14.01,2013-07-18 23:35:00,
2013-07-18 19:36:00,82.3,82.2,30.03,SW,231,3.3,13.0,100,0.01,,SKC,0.01,VWS V14.01,2013-07-18 23:36:00,
2013-07-18 19:39:00,82.3,82.2,30.03,SW,231,0.0,13.0,100,0.01,,SKC,0.01,VWS V14.01,2013-07-18 23:39:00,
2013-07-18 19:40:00,82.3,82.2,30.03,SW,231,0.0,13.0,100,0.01,,SKC,0.01,VWS V14.01,2013-07-18 23:40:00,
2013-07-18 19:41:00,82.3,82.2,30.02,SW,231,0.0,13.0,100,0.01,,SKC,0.01,VWS V14.01,2013-07-18 23:41:00,
2013-07-18 19:44:00,82.3,82.2,30.03,SW,231,0.0,13.0,100,0.01,,SKC,0.01,VWS V14.01,2013-07-18 23:44:00,
2013-07-18 19:45:00,82.3,82.2,30.03,SW,231,0.0,13.0,100,0.01,,SKC,0.01,VWS V14.01,2013-07-18 23:45:00,
2013-07-18 19:46:00,82.3,82.2,30.03,SW,231,0.0,13.0,100,0.01,,SKC,0.01,VWS V14.01,2013-07-18 23:46:00,
2013-07-18 19:49:00,82.3,82.1,30.03,SW,231,0.0,13.0,99,0.01,,SKC,0.01,VWS V14.01,2013-07-18 23:49:00,
2013-07-18 19:50:00,82.3,82.1,30.03,SW,231,0.0,13.0,99,0.01,,SKC,0.01,VWS V14.01,2013-07-18 23:50:00,
2013-07-18 19:51:00,82.3,82.1,30.03,SW,231,0.0,13.0,99,0.01,,SKC,0.01,VWS V14.01,2013-07-18 23:51:00,
2013-07-18 19:54:00,82.4,82.1,30.04,SSW,194,0.0,13.0,99,0.01,,SKC,0.01,VWS V14.01,2013-07-18 23:54:00,
2013-07-18 19:55:00,82.3,82.0,30.03,South,186,2.2,13.0,99,0.01,,SKC,0.01,VWS V14.01,2013-07-18 23:55:00,
2013-07-18 19:56:00,82.3,82.0,30.04,South,187,0.0,13.0,99,0.01,,SKC,0.01,VWS V14.01,2013-07-18 23:56:00,
2013-07-18 19:59:00,82.4,82.1,30.04,South,187,0.0,13.0,99,0.01,,SKC,0.01,VWS V14.01,2013-07-18 23:59:00,
2013-07-18 20:00:00,82.4,82.1,30.04,South,187,0.0,13.0,99,0.01,,SKC,0.01,VWS V14.01,2013-07-19 00:00:00,
2013-07-18 20:01:00,82.4,82.1,30.04,South,187,0.0,13.0,99,0.01,,SKC,0.01,VWS V14.01,2013-07-19 00:01:00,
2013-07-18 20:04:00,82.4,82.1,30.05,South,187,0.0,13.0,99,0.01,,SKC,0.01,VWS V14.01,2013-07-19 00:04:00,
2013-07-18 20:06:00,82.1,81.5,30.05,South,187,0.0,13.0,98,0.01,,SKC,0.01,VWS V14.01,2013-07-19 00:06:00,
2013-07-18 20:09:00,81.1,80.4,30.05,South,187,0.0,13.0,98,0.01,,SKC,0.01,VWS V14.01,2013-07-19 00:09:00,
2013-07-18 20:11:00,80.8,80.1,30.05,South,187,0.0,13.0,98,0.01,,SKC,0.01,VWS V14.01,2013-07-19 00:11:00,
2013-07-18 20:12:00,80.5,79.7,30.05,South,187,0.0,13.0,97,0.01,,SKC,0.01,VWS V14.01,2013-07-19 00:12:00,
2013-07-18 20:15:00,80.1,79.2,30.05,South,187,0.0,13.0,97,0.01,,SKC,0.01,VWS V14.01,2013-07-19 00:15:00,
2013-07-18 20:16:00,79.9,79.1,30.05,South,187,0.0,13.0,97,0.01,,SKC,0.01,VWS V14.01,2013-07-19 00:16:00,
2013-07-18 20:17:00,79.5,78.5,30.05,South,187,0.0,13.0,97,0.01,,SKC,0.01,VWS V14.01,2013-07-19 00:17:00,
2013-07-18 20:20:00,79.2,78.3,30.05,South,187,0.0,13.0,97,0.01,,SKC,0.01,VWS V14.01,2013-07-19 00:20:00,
2013-07-18 20:21:00,79.1,78.2,30.05,South,187,0.0,13.0,97,0.01,,SKC,0.01,VWS V14.01,2013-07-19 00:21:00,
2013-07-18 20:22:00,79.1,78.2,30.05,South,187,0.0,13.0,97,0.01,,SKC,0.01,VWS V14.01,2013-07-19 00:22:00,
2013-07-18 20:25:00,78.7,77.8,30.05,South,187,0.0,13.0,97,0.01,,SKC,0.01,VWS V14.01,2013-07-19 00:25:00,
2013-07-18 20:26:00,78.7,77.9,30.06,South,187,0.0,13.0,97,0.01,,SKC,0.01,VWS V14.01,2013-07-19 00:26:00,
2013-07-18 20:27:00,78.7,77.9,30.06,South,187,0.0,13.0,97,0.01,,SKC,0.01,VWS V14.01,2013-07-19 00:27:00,
2013-07-18 20:28:00,78.5,77.6,30.06,South,187,0.0,13.0,97,0.01,,SKC,0.01,VWS V14.01,2013-07-19 00:28:00,
2013-07-18 20:30:00,78.4,77.6,30.05,South,187,0.0,13.0,97,0.01,,SKC,0.01,VWS V14.01,2013-07-19 00:30:00,
2013-07-18 20:32:00,78.3,77.4,30.05,South,187,0.0,13.0,97,0.01,,SKC,0.01,VWS V14.01,2013-07-19 00:32:00,
2013-07-18 20:33:00,78.2,77.3,30.05,South,187,0.0,13.0,97,0.01,,SKC,0.01,VWS V14.01,2013-07-19 00:33:00,
2013-07-18 20:35:00,78.1,77.3,30.06,South,187,0.0,13.0,97,0.01,,SKC,0.01,VWS V14.01,2013-07-19 00:35:00,
2013-07-18 20:37:00,78.1,77.3,30.05,South,187,0.0,13.0,98,0.01,,SKC,0.01,VWS V14.01,2013-07-19 00:37:00,
2013-07-18 20:38:00,78.2,77.4,30.06,South,187,0.0,13.0,98,0.01,,SKC,0.01,VWS V14.01,2013-07-19 00:38:00,
2013-07-18 20:40:00,78.2,77.5,30.05,South,187,0.0,13.0,98,0.01,,SKC,0.01,VWS V14.01,2013-07-19 00:40:00,
2013-07-18 20:42:00,78.0,77.2,30.06,South,187,0.0,13.0,98,0.01,,SKC,0.01,VWS V14.01,2013-07-19 00:42:00,
2013-07-18 20:43:00,78.0,77.3,30.06,South,187,0.0,13.0,98,0.01,,SKC,0.01,VWS V14.01,2013-07-19 00:43:00,
2013-07-18 20:45:00,78.0,77.3,30.05,South,187,0.0,13.0,98,0.01,,SKC,0.01,VWS V14.01,2013-07-19 00:45:00,
2013-07-18 20:47:00,78.0,77.3,30.05,South,187,0.0,13.0,98,0.01,,SKC,0.01,VWS V14.01,2013-07-19 00:47:00,
2013-07-18 20:48:00,77.9,77.2,30.05,South,187,0.0,13.0,98,0.01,,SKC,0.01,VWS V14.01,2013-07-19 00:48:00,
2013-07-18 20:50:00,77.9,77.2,30.05,South,187,0.0,13.0,98,0.01,,SKC,0.01,VWS V14.01,2013-07-19 00:50:00,
2013-07-18 20:52:00,77.9,77.1,30.06,South,187,0.0,13.0,98,0.01,,SKC,0.01,VWS V14.01,2013-07-19 00:52:00,
2013-07-18 20:53:00,77.8,77.1,30.06,South,187,0.0,13.0,98,0.01,,SKC,0.01,VWS V14.01,2013-07-19 00:53:00,
2013-07-18 20:55:00,77.8,77.2,30.06,South,187,0.0,13.0,98,0.01,,SKC,0.01,VWS V14.01,2013-07-19 00:55:00,
2013-07-18 20:57:00,77.7,77.1,30.06,South,187,0.0,13.0,98,0.01,,SKC,0.01,VWS V14.01,2013-07-19 00:57:00,
2013-07-18 20:58:00,77.7,77.1,30.06,South,187,0.0,13.0,98,0.01,,SKC,0.01,VWS V14.01,2013-07-19 00:58:00,
2013-07-18 20:59:00,77.7,77.1,30.06,South,187,0.0,13.0,98,0.01,,SKC,0.01,VWS V14.01,2013-07-19 00:59:00,
2013-07-18 21:01:00,77.5,77.0,30.06,South,187,0.0,13.0,98,0.01,,SKC,0.01,VWS V14.01,2013-07-19 01:01:00,
2013-07-18 21:02:00,77.7,77.0,30.07,South,187,0.0,13.0,98,0.01,,SKC,0.01,VWS V14.01,2013-07-19 01:02:00,
2013-07-18 21:03:00,77.5,77.0,30.06,South,187,0.0,13.0,98,0.01,,SKC,0.01,VWS V14.01,2013-07-19 01:03:00,
2013-07-18 21:04:00,77.4,76.9,30.06,South,187,0.0,13.0,98,0.01,,SKC,0.01,VWS V14.01,2013-07-19 01:04:00,
2013-07-18 21:06:00,77.4,76.9,30.06,South,187,0.0,13.0,98,0.01,,SKC,0.01,VWS V14.01,2013-07-19 01:06:00,
2013-07-18 21:07:00,77.3,76.8,30.06,South,187,0.0,13.0,98,0.01,,SKC,0.01,VWS V14.01,2013-07-19 01:07:00,
2013-07-18 21:08:00,77.3,76.8,30.06,South,187,0.0,13.0,98,0.01,,SKC,0.01,VWS V14.01,2013-07-19 01:08:00,
2013-07-18 21:09:00,77.3,76.9,30.06,South,187,0.0,13.0,99,0.01,,SKC,0.01,VWS V14.01,2013-07-19 01:09:00,
2013-07-18 21:11:00,77.2,76.8,30.06,South,187,0.0,13.0,99,0.01,,SKC,0.01,VWS V14.01,2013-07-19 01:11:00,
2013-07-18 21:13:00,77.2,76.8,30.06,South,187,0.0,13.0,99,0.01,,SKC,0.01,VWS V14.01,2013-07-19 01:13:00,
2013-07-18 21:14:00,77.2,76.8,30.06,South,187,0.0,13.0,99,0.01,,SKC,0.01,VWS V14.01,2013-07-19 01:14:00,
2013-07-18 21:15:00,77.2,76.8,30.05,South,187,0.0,13.0,99,0.01,,SKC,0.01,VWS V14.01,2013-07-19 01:15:00,
2013-07-18 21:16:00,77.2,76.8,30.06,South,187,0.0,13.0,99,0.01,,SKC,0.01,VWS V14.01,2013-07-19 01:16:00,
2013-07-18 21:18:00,77.2,76.9,30.06,South,187,0.0,13.0,99,0.01,,SKC,0.01,VWS V14.01,2013-07-19 01:18:00,
2013-07-18 21:19:00,77.2,76.9,30.06,South,187,0.0,13.0,99,0.01,,SKC,0.01,VWS V14.01,2013-07-19 01:19:00,
2013-07-18 21:20:00,77.2,76.9,30.06,South,187,0.0,13.0,99,0.01,,SKC,0.01,VWS V14.01,2013-07-19 01:20:00,
2013-07-18 21:21:00,77.2,76.9,30.06,South,187,0.0,13.0,99,0.01,,SKC,0.01,VWS V14.01,2013-07-19 01:21:00,
2013-07-18 21:23:00,77.3,77.0,30.06,South,187,0.0,13.0,99,0.01,,SKC,0.01,VWS V14.01,2013-07-19 01:23:00,
2013-07-18 21:24:00,77.3,77.0,30.06,South,187,0.0,13.0,99,0.01,,SKC,0.01,VWS V14.01,2013-07-19 01:24:00,
2013-07-18 21:25:00,77.3,77.0,30.06,South,187,0.0,13.0,99,0.01,,SKC,0.01,VWS V14.01,2013-07-19 01:25:00,
2013-07-18 21:26:00,77.3,77.0,30.06,South,187,0.0,13.0,99,0.01,,SKC,0.01,VWS V14.01,2013-07-19 01:26:00,
2013-07-18 21:28:00,77.2,76.9,30.06,South,187,0.0,13.0,99,0.01,,SKC,0.01,VWS V14.01,2013-07-19 01:28:00,
2013-07-18 21:29:00,77.3,77.0,30.06,South,187,0.0,13.0,99,0.01,,SKC,0.01,VWS V14.01,2013-07-19 01:29:00,
2013-07-18 21:30:00,77.3,77.0,30.06,South,187,0.0,13.0,99,0.01,,SKC,0.01,VWS V14.01,2013-07-19 01:30:00,
2013-07-18 21:31:00,77.4,77.1,30.07,South,187,0.0,13.0,99,0.01,,SKC,0.01,VWS V14.01,2013-07-19 01:31:00,
2013-07-18 21:33:00,77.3,77.1,30.07,South,187,0.0,13.0,99,0.01,,SKC,0.01,VWS V14.01,2013-07-19 01:33:00,
2013-07-18 21:34:00,77.3,77.1,30.07,South,187,0.0,13.0,99,0.01,,SKC,0.01,VWS V14.01,2013-07-19 01:34:00,
2013-07-18 21:35:00,77.4,77.2,30.06,South,187,0.0,13.0,99,0.01,,SKC,0.01,VWS V14.01,2013-07-19 01:35:00,
2013-07-18 21:36:00,77.4,77.2,30.07,South,187,0.0,13.0,99,0.01,,SKC,0.01,VWS V14.01,2013-07-19 01:36:00,
2013-07-18 21:38:00,77.4,77.2,30.07,South,187,0.0,13.0,99,0.01,,SKC,0.01,VWS V14.01,2013-07-19 01:38:00,
2013-07-18 21:39:00,77.4,77.2,30.07,South,187,0.0,13.0,99,0.01,,SKC,0.01,VWS V14.01,2013-07-19 01:39:00,
2013-07-18 21:40:00,77.5,77.3,30.07,South,187,0.0,13.0,99,0.01,,SKC,0.01,VWS V14.01,2013-07-19 01:40:00,
2013-07-18 21:41:00,77.4,77.2,30.07,South,187,0.0,13.0,99,0.01,,SKC,0.01,VWS V14.01,2013-07-19 01:41:00,
2013-07-18 21:43:00,77.5,77.3,30.07,South,187,0.0,13.0,99,0.01,,SKC,0.01,VWS V14.01,2013-07-19 01:43:00,
2013-07-18 21:44:00,77.5,77.3,30.06,South,187,0.0,13.0,100,0.01,,SKC,0.01,VWS V14.01,2013-07-19 01:44:00,
2013-07-18 21:45:00,77.7,77.3,30.06,South,187,0.0,13.0,100,0.01,,SKC,0.01,VWS V14.01,2013-07-19 01:45:00,
2013-07-18 21:46:00,77.5,77.3,30.06,South,187,0.0,13.0,100,0.01,,SKC,0.01,VWS V14.01,2013-07-19 01:46:00,
2013-07-18 21:48:00,77.5,77.3,30.07,South,187,0.0,13.0,100,0.01,,SKC,0.01,VWS V14.01,2013-07-19 01:48:00,
2013-07-18 21:49:00,77.7,77.6,30.07,South,187,0.0,13.0,100,0.01,,SKC,0.01,VWS V14.01,2013-07-19 01:49:00,
2013-07-18 21:50:00,77.7,77.6,30.07,South,187,0.0,13.0,100,0.01,,SKC,0.01,VWS V14.01,2013-07-19 01:50:00,
2013-07-18 21:52:00,77.7,77.6,30.07,South,187,0.0,13.0,100,0.01,,SKC,0.01,VWS V14.01,2013-07-19 01:52:00,
2013-07-18 21:53:00,77.5,77.4,30.07,South,187,0.0,13.0,100,0.01,,SKC,0.01,VWS V14.01,2013-07-19 01:53:00,
2013-07-18 21:54:00,77.7,77.6,30.07,South,187,0.0,13.0,100,0.01,,SKC,0.01,VWS V14.01,2013-07-19 01:54:00,
2013-07-18 21:55:00,77.7,77.6,30.07,South,187,0.0,13.0,100,0.01,,SKC,0.01,VWS V14.01,2013-07-19 01:55:00,
2013-07-18 21:57:00,77.5,77.4,30.07,South,187,0.0,13.0,100,0.01,,SKC,0.01,VWS V14.01,2013-07-19 01:57:00,
2013-07-18 21:58:00,77.4,77.4,30.07,South,187,0.0,13.0,100,0.01,,SKC,0.01,VWS V14.01,2013-07-19 01:58:00,
2013-07-18 21:59:00,77.4,77.4,30.07,South,187,0.0,13.0,100,0.01,,SKC,0.01,VWS V14.01,2013-07-19 01:59:00,
2013-07-18 22:00:00,77.4,77.4,30.07,South,187,0.0,13.0,100,0.01,,SKC,0.01,VWS V14.01,2013-07-19 02:00:00,
2013-07-18 22:01:00,77.4,77.4,30.07,South,187,0.0,13.0,100,0.01,,SKC,0.01,VWS V14.01,2013-07-19 02:01:00,
2013-07-18 22:02:00,77.4,77.4,30.07,South,187,0.0,13.0,100,0.01,,SKC,0.01,VWS V14.01,2013-07-19 02:02:00,
2013-07-18 22:03:00,77.3,77.3,30.07,South,187,0.0,13.0,100,0.01,,SKC,0.01,VWS V14.01,2013-07-19 02:03:00,
2013-07-18 22:04:00,77.3,77.4,30.07,South,187,0.0,13.0,100,0.01,,SKC,0.01,VWS V14.01,2013-07-19 02:04:00,
2013-07-18 22:05:00,77.4,77.4,30.07,South,187,0.0,13.0,100,0.01,,SKC,0.01,VWS V14.01,2013-07-19 02:05:00,
2013-07-18 22:06:00,77.3,77.4,30.07,South,187,0.0,13.0,100,0.01,,SKC,0.01,VWS V14.01,2013-07-19 02:06:00,
2013-07-18 22:07:00,77.3,77.4,30.07,South,187,0.0,13.0,100,0.01,,SKC,0.01,VWS V14.01,2013-07-19 02:07:00,
2013-07-18 22:09:00,77.3,77.3,30.08,South,187,0.0,13.0,100,0.01,,SKC,0.01,VWS V14.01,2013-07-19 02:09:00,
2013-07-18 22:10:00,77.3,77.3,30.07,South,187,0.0,13.0,100,0.01,,SKC,0.01,VWS V14.01,2013-07-19 02:10:00,
2013-07-18 22:11:00,77.4,77.4,30.08,South,187,0.0,13.0,100,0.01,,SKC,0.01,VWS V14.01,2013-07-19 02:11:00,
2013-07-18 22:12:00,77.3,77.3,30.07,South,187,0.0,13.0,100,0.01,,SKC,0.01,VWS V14.01,2013-07-19 02:12:00,
2013-07-18 22:14:00,77.3,77.3,30.08,South,187,0.0,13.0,100,0.01,,SKC,0.01,VWS V14.01,2013-07-19 02:14:00,
2013-07-18 22:15:00,77.3,77.3,30.07,South,187,0.0,13.0,100,0.01,,SKC,0.01,VWS V14.01,2013-07-19 02:15:00,
2013-07-18 22:16:00,77.3,77.3,30.07,South,187,0.0,13.0,100,0.01,,SKC,0.01,VWS V14.01,2013-07-19 02:16:00,
2013-07-18 22:18:00,77.3,77.3,30.08,South,187,0.0,13.0,100,0.01,,SKC,0.01,VWS V14.01,2013-07-19 02:18:00,
2013-07-18 22:19:00,77.2,77.2,30.08,South,187,0.0,13.0,100,0.01,,SKC,0.01,VWS V14.01,2013-07-19 02:19:00,
2013-07-18 22:20:00,77.2,77.2,30.08,South,187,0.0,13.0,100,0.01,,SKC,0.01,VWS V14.01,2013-07-19 02:20:00,
2013-07-18 22:21:00,77.3,77.3,30.07,South,187,0.0,13.0,100,0.01,,SKC,0.01,VWS V14.01,2013-07-19 02:21:00,
2013-07-18 22:23:00,77.3,77.3,30.07,South,187,0.0,13.0,100,0.01,,SKC,0.01,VWS V14.01,2013-07-19 02:23:00,
2013-07-18 22:24:00,77.2,77.2,30.07,South,187,0.0,13.0,100,0.01,,SKC,0.01,VWS V14.01,2013-07-19 02:24:00,
2013-07-18 22:25:00,77.2,77.2,30.07,South,187,0.0,13.0,100,0.01,,SKC,0.01,VWS V14.01,2013-07-19 02:25:00,
2013-07-18 22:26:00,77.2,77.2,30.07,South,187,0.0,13.0,100,0.01,,SKC,0.01,VWS V14.01,2013-07-19 02:26:00,
2013-07-18 22:28:00,77.2,77.2,30.07,South,187,0.0,13.0,100,0.01,,SKC,0.01,VWS V14.01,2013-07-19 02:28:00,
2013-07-18 22:29:00,77.2,77.2,30.07,South,187,0.0,13.0,100,0.01,,SKC,0.01,VWS V14.01,2013-07-19 02:29:00,
2013-07-18 22:30:00,77.2,77.1,30.08,South,187,0.0,13.0,100,0.01,,SKC,0.01,VWS V14.01,2013-07-19 02:30:00,
2013-07-18 22:31:00,77.1,77.1,30.08,South,187,0.0,13.0,100,0.01,,SKC,0.01,VWS V14.01,2013-07-19 02:31:00,
2013-07-18 22:32:00,77.2,77.2,30.08,South,187,0.0,13.0,100,0.01,,SKC,0.01,VWS V14.01,2013-07-19 02:32:00,
2013-07-18 22:33:00,77.1,77.1,30.08,South,187,0.0,13.0,100,0.01,,SKC,0.01,VWS V14.01,2013-07-19 02:33:00,
2013-07-18 22:34:00,77.1,77.1,30.08,South,187,0.0,13.0,100,0.01,,SKC,0.01,VWS V14.01,2013-07-19 02:34:00,
2013-07-18 22:35:00,77.1,77.1,30.08,South,187,0.0,13.0,100,0.01,,SKC,0.01,VWS V14.01,2013-07-19 02:35:00,
2013-07-18 22:36:00,77.1,77.1,30.08,South,187,0.0,13.0,100,0.01,,SKC,0.01,VWS V14.01,2013-07-19 02:36:00,
2013-07-18 22:37:00,77.1,77.1,30.08,South,187,0.0,13.0,100,0.01,,SKC,0.01,VWS V14.01,2013-07-19 02:37:00,
2013-07-18 22:38:00,77.1,77.1,30.07,South,187,0.0,13.0,100,0.01,,SKC,0.01,VWS V14.01,2013-07-19 02:38:00,
2013-07-18 22:40:00,77.1,77.1,30.08,South,187,0.0,13.0,100,0.01,,SKC,0.01,VWS V14.01,2013-07-19 02:40:00,
2013-07-18 22:42:00,77.1,77.1,30.08,South,187,0.0,13.0,100,0.01,,SKC,0.01,VWS V14.01,2013-07-19 02:42:00,
2013-07-18 22:43:00,77.1,77.1,30.08,South,187,0.0,13.0,100,0.01,,SKC,0.01,VWS V14.01,2013-07-19 02:43:00,
2013-07-18 22:45:00,77.1,77.1,30.08,South,187,0.0,13.0,100,0.01,,SKC,0.01,VWS V14.01,2013-07-19 02:45:00,
2013-07-18 22:47:00,77.2,77.2,30.08,South,187,0.0,13.0,100,0.01,,SKC,0.01,VWS V14.01,2013-07-19 02:47:00,
2013-07-18 22:48:00,77.2,77.2,30.08,South,187,0.0,13.0,100,0.01,,SKC,0.01,VWS V14.01,2013-07-19 02:48:00,
2013-07-18 22:50:00,77.1,77.1,30.08,South,187,0.0,13.0,100,0.01,,SKC,0.01,VWS V14.01,2013-07-19 02:50:00,
2013-07-18 22:51:00,77.2,77.2,30.08,South,187,0.0,13.0,100,0.01,,SKC,0.01,VWS V14.01,2013-07-19 02:51:00,
2013-07-18 22:52:00,77.1,77.1,30.08,South,187,0.0,13.0,100,0.01,,SKC,0.01,VWS V14.01,2013-07-19 02:52:00,
2013-07-18 22:53:00,77.1,77.1,30.08,South,187,0.0,13.0,100,0.01,,SKC,0.01,VWS V14.01,2013-07-19 02:53:00,
2013-07-18 22:55:00,77.1,77.1,30.08,South,187,0.0,13.0,100,0.01,,SKC,0.01,VWS V14.01,2013-07-19 02:55:00,
2013-07-18 22:56:00,77.1,77.1,30.08,South,187,0.0,13.0,100,0.01,,SKC,0.01,VWS V14.01,2013-07-19 02:56:00,
2013-07-18 22:57:00,77.1,77.1,30.08,South,187,0.0,13.0,100,0.01,,SKC,0.01,VWS V14.01,2013-07-19 02:57:00,
2013-07-18 22:59:00,77.1,77.1,30.08,South,187,0.0,13.0,100,0.01,,SKC,0.01,VWS V14.01,2013-07-19 02:59:00,
2013-07-18 23:00:00,77.1,77.1,30.08,South,187,0.0,13.0,100,0.01,,SKC,0.01,VWS V14.01,2013-07-19 03:00:00,
2013-07-18 23:01:00,77.1,77.1,30.08,South,187,0.0,13.0,100,0.01,,SKC,0.01,VWS V14.01,2013-07-19 03:01:00,
2013-07-18 23:02:00,77.1,77.1,30.08,South,187,0.0,13.0,100,0.01,,SKC,0.01,VWS V14.01,2013-07-19 03:02:00,
2013-07-18 23:04:00,77.1,77.1,30.08,South,187,0.0,13.0,100,0.01,,SKC,0.01,VWS V14.01,2013-07-19 03:04:00,
2013-07-18 23:05:00,77.0,77.0,30.08,South,187,0.0,13.0,100,0.01,,SKC,0.01,VWS V14.01,2013-07-19 03:05:00,
2013-07-18 23:06:00,77.0,77.0,30.08,South,187,0.0,13.0,100,0.01,,SKC,0.01,VWS V14.01,2013-07-19 03:06:00,
2013-07-18 23:07:00,77.0,77.0,30.08,South,187,0.0,13.0,100,0.01,,SKC,0.01,VWS V14.01,2013-07-19 03:07:00,
2013-07-18 23:08:00,77.0,77.0,30.08,South,187,0.0,13.0,100,0.01,,SKC,0.01,VWS V14.01,2013-07-19 03:08:00,
2013-07-18 23:09:00,77.0,77.0,30.08,South,187,0.0,13.0,100,0.01,,SKC,0.01,VWS V14.01,2013-07-19 03:09:00,
2013-07-18 23:10:00,76.9,76.9,30.08,South,187,0.0,13.0,100,0.01,,SKC,0.01,VWS V14.01,2013-07-19 03:10:00,
2013-07-18 23:11:00,76.9,76.9,30.08,South,187,0.0,13.0,100,0.01,,SKC,0.01,VWS V14.01,2013-07-19 03:11:00,
2013-07-18 23:12:00,76.9,76.9,30.09,South,187,0.0,13.0,100,0.01,,SKC,0.01,VWS V14.01,2013-07-19 03:12:00,
2013-07-18 23:13:00,76.8,76.8,30.08,South,187,0.0,13.0,100,0.01,,SKC,0.01,VWS V14.01,2013-07-19 03:13:00,
2013-07-18 23:14:00,76.9,76.9,30.08,South,187,0.0,13.0,100,0.01,,SKC,0.01,VWS V14.01,2013-07-19 03:14:00,
2013-07-18 23:16:00,76.9,76.9,30.08,South,187,0.0,13.0,100,0.01,,SKC,0.01,VWS V14.01,2013-07-19 03:16:00,
2013-07-18 23:18:00,76.8,76.8,30.08,South,187,0.0,13.0,100,0.01,,SKC,0.01,VWS V14.01,2013-07-19 03:18:00,
2013-07-18 23:19:00,76.9,76.9,30.08,South,187,0.0,13.0,100,0.01,,SKC,0.01,VWS V14.01,2013-07-19 03:19:00,
2013-07-18 23:21:00,76.9,76.9,30.08,South,187,0.0,13.0,100,0.01,,SKC,0.01,VWS V14.01,2013-07-19 03:21:00,
2013-07-18 23:22:00,76.9,76.9,30.08,South,187,0.0,13.0,100,0.01,,SKC,0.01,VWS V14.01,2013-07-19 03:22:00,
2013-07-18 23:23:00,76.9,76.9,30.08,South,187,0.0,13.0,100,0.01,,SKC,0.01,VWS V14.01,2013-07-19 03:23:00,
2013-07-18 23:25:00,77.0,77.0,30.08,South,187,0.0,13.0,100,0.01,,SKC,0.01,VWS V14.01,2013-07-19 03:25:00,
2013-07-18 23:26:00,77.0,77.0,30.08,South,187,0.0,13.0,100,0.01,,SKC,0.01,VWS V14.01,2013-07-19 03:26:00,
2013-07-18 23:27:00,77.1,77.1,30.08,South,187,0.0,13.0,100,0.01,,SKC,0.01,VWS V14.01,2013-07-19 03:27:00,
2013-07-18 23:28:00,77.1,77.1,30.08,South,187,0.0,13.0,100,0.01,,SKC,0.01,VWS V14.01,2013-07-19 03:28:00,
2013-07-18 23:30:00,77.1,77.1,30.08,South,187,0.0,13.0,100,0.01,,SKC,0.01,VWS V14.01,2013-07-19 03:30:00,
2013-07-18 23:31:00,77.2,77.2,30.08,South,187,0.0,13.0,100,0.01,,SKC,0.01,VWS V14.01,2013-07-19 03:31:00,
2013-07-18 23:32:00,77.2,77.2,30.08,South,187,0.0,13.0,100,0.01,,SKC,0.01,VWS V14.01,2013-07-19 03:32:00,
2013-07-18 23:33:00,77.2,77.2,30.08,South,187,0.0,13.0,100,0.01,,SKC,0.01,VWS V14.01,2013-07-19 03:33:00,
2013-07-18 23:35:00,77.3,77.3,30.08,South,187,0.0,13.0,100,0.01,,SKC,0.01,VWS V14.01,2013-07-19 03:35:00,
2013-07-18 23:36:00,77.3,77.3,30.08,South,187,0.0,13.0,100,0.01,,SKC,0.01,VWS V14.01,2013-07-19 03:36:00,
2013-07-18 23:38:00,77.3,77.3,30.08,South,187,0.0,13.0,100,0.01,,SKC,0.01,VWS V14.01,2013-07-19 03:38:00,
2013-07-18 23:40:00,77.3,77.3,30.08,South,187,0.0,13.0,100,0.01,,SKC,0.01,VWS V14.01,2013-07-19 03:40:00,
2013-07-18 23:41:00,77.2,77.2,30.08,South,187,0.0,13.0,100,0.01,,SKC,0.01,VWS V14.01,2013-07-19 03:41:00,
2013-07-18 23:43:00,77.2,77.2,30.08,South,187,0.0,13.0,100,0.01,,SKC,0.01,VWS V14.01,2013-07-19 03:43:00,
2013-07-18 23:45:00,77.2,77.2,30.08,South,187,0.0,13.0,100,0.01,,SKC,0.01,VWS V14.01,2013-07-19 03:45:00,
2013-07-18 23:46:00,77.1,77.1,30.08,South,187,0.0,13.0,100,0.01,,SKC,0.01,VWS V14.01,2013-07-19 03:46:00,
2013-07-18 23:48:00,77.2,77.2,30.08,South,187,0.0,13.0,100,0.01,,SKC,0.01,VWS V14.01,2013-07-19 03:48:00,
2013-07-18 23:49:00,77.1,77.1,30.08,South,187,0.0,13.0,100,0.01,,SKC,0.01,VWS V14.01,2013-07-19 03:49:00,
2013-07-18 23:50:00,77.1,77.1,30.08,South,187,0.0,13.0,100,0.01,,SKC,0.01,VWS V14.01,2013-07-19 03:50:00,
2013-07-18 23:52:00,77.1,77.1,30.08,South,187,0.0,13.0,100,0.01,,SKC,0.01,VWS V14.01,2013-07-19 03:52:00,
2013-07-18 23:53:00,77.1,77.1,30.08,South,187,0.0,13.0,100,0.01,,SKC,0.01,VWS V14.01,2013-07-19 03:53:00,
2013-07-18 23:54:00,77.1,77.1,30.08,South,187,0.0,13.0,100,0.01,,SKC,0.01,VWS V14.01,2013-07-19 03:54:00,
2013-07-18 23:55:00,77.1,77.1,30.08,South,187,0.0,13.0,100,0.01,,SKC,0.01,VWS V14.01,2013-07-19 03:55:00,
2013-07-18 23:57:00,77.1,77.1,30.08,South,187,0.0,13.0,100,0.01,,SKC,0.01,VWS V14.01,2013-07-19 03:57:00,
2013-07-18 23:59:00,77.1,77.1,30.08,South,187,0.0,13.0,100,0.01,,SKC,0.01,VWS V14.01,2013-07-19 03:59:00,